GFSSGP_sfc_rhum_054.txt.gz
RH
79 62 46 29 27 34 36 28 21 35 68 60 62 70 86 88 84 88 93 84 90 85 91 91 94 93 92 91 90 89 88 86 83 83 84 82 78 76 73 72 71 68 63 62 60 60 60 62 65
48 34 33 29 27 30 26 27 72 66 63 59 57 69 80 92 83 96 87 84 86 80 85 90 93 91 90 90 89 88 85 85 85 81 79 79 74 73 67 68 73 70 63 61 60 60 61 64 71
39 23 26 29 27 24 25 48 67 63 59 56 60 69 79 87 77 83 82 85 88 84 86 91 93 91 91 90 88 88 89 88 86 82 79 77 71 68 68 74 75 71 63 61 60 61 63 69 76
23 22 21 21 23 18 24 68 60 56 53 54 65 85 80 86 92 90 77 83 88 89 88 94 92 92 91 89 90 90 89 87 85 81 78 74 69 71 72 78 75 69 64 63 62 63 67 76 75
23 24 26 24 19 31 65 65 64 56 59 58 60 76 91 93 95 95 87 84 91 95 94 90 95 92 90 90 90 90 89 87 83 81 79 76 73 74 76 81 78 75 68 67 66 67 73 74 75
28 23 26 25 26 62 66 70 67 66 65 54 62 70 92 94 96 97 94 95 92 96 88 80 88 86 91 91 91 90 90 87 85 83 81 81 80 79 79 80 80 79 77 75 73 74 73 73 76
30 28 29 23 22 50 66 64 68 67 65 55 57 86 94 95 94 94 96 94 94 97 96 93 82 82 94 94 93 93 91 88 86 84 84 84 84 83 82 82 81 80 79 76 74 74 72 71 75
22 22 27 22 53 67 63 70 70 59 50 57 60 92 97 92 92 92 95 96 95 92 92 94 95 92 95 92 92 92 91 88 86 84 84 84 83 83 82 82 81 79 76 72 72 72 70 69 73
18 24 27 22 66 64 65 66 62 60 57 56 67 80 85 90 89 92 92 95 94 93 89 96 93 96 96 90 88 89 87 85 84 82 83 84 81 81 80 80 79 77 74 71 72 71 69 69 76
18 25 21 26 65 69 67 73 68 67 59 87 92 93 90 88 88 91 92 95 95 93 94 95 95 97 92 74 89 91 78 81 82 81 81 77 81 83 78 80 78 76 73 76 74 75 72 68 66
18 19 28 58 62 60 64 71 64 60 55 67 96 95 91 89 88 87 86 86 89 90 88 93 96 94 90 82 92 93 89 85 82 78 81 81 80 86 86 92 94 84 78 74 67 64 64 60 63
18 14 25 56 57 57 65 63 58 64 55 66 80 85 85 90 85 77 80 82 84 88 83 87 89 87 85 84 83 83 80 88 87 85 82 93 98 95 95 97 85 79 74 67 67 70 62 58 53
21 18 32 50 56 56 56 59 55 53 51 72 66 82 82 78 74 82 77 76 78 87 74 83 81 78 81 85 87 89 94 96 98 97 95 96 97 97 89 87 80 77 71 67 65 60 55 54 50
23 46 50 55 53 59 57 58 50 47 51 67 78 84 80 79 73 80 82 74 78 68 68 72 74 78 85 90 93 98 96 98 98 98 96 94 91 90 90 89 76 71 70 66 62 60 60 59 55
27 31 42 49 52 44 48 53 53 49 49 65 74 78 81 82 74 83 81 72 68 60 63 67 86 82 80 84 90 96 96 96 95 92 89 87 89 89 89 90 83 76 70 65 62 62 62 62 55
24 29 39 50 44 39 36 44 39 39 58 70 75 78 82 78 70 80 74 61 58 60 65 78 72 80 86 90 92 93 97 98 97 91 88 87 83 78 78 77 79 74 70 69 68 66 66 68 68
27 30 28 36 32 38 36 41 39 40 42 62 70 69 70 79 76 72 56 54 57 60 67 83 80 85 93 96 96 97 96 97 95 84 80 78 76 76 77 74 75 72 70 70 64 74 70 69 68
34 29 26 28 41 42 47 39 35 37 49 55 62 63 50 57 60 49 45 52 58 63 80 77 82 94 96 96 97 98 97 95 87 82 76 74 77 77 77 70 72 68 69 73 72 66 69 72 73
26 28 29 24 26 42 38 34 33 42 46 43 40 53 49 52 44 43 50 53 60 82 82 82 90 95 90 95 98 99 96 89 82 78 72 74 74 76 73 72 70 68 71 71 68 72 74 73 78
36 35 31 28 23 34 37 35 38 38 38 34 31 36 36 39 45 49 53 57 63 88 83 86 86 91 85 92 98 94 91 85 79 78 77 74 71 67 66 69 67 65 71 70 71 74 80 78 81
39 44 37 33 30 25 27 34 27 29 38 38 35 28 29 35 43 57 63 67 80 92 93 84 86 88 86 92 91 85 80 82 81 82 83 73 66 63 66 66 69 68 70 71 76 76 74 81 81
41 35 34 35 32 30 33 45 46 27 33 39 35 39 37 39 42 60 65 85 88 96 94 88 89 88 89 94 89 79 76 72 79 80 80 71 64 64 64 64 68 71 75 76 77 72 78 79 75
40 40 40 35 41 41 38 38 36 35 32 35 39 40 37 46 42 62 73 79 89 96 95 93 88 86 88 89 84 76 79 76 80 82 77 74 68 64 60 66 70 74 79 74 66 68 70 78 80
31 36 46 51 52 56 39 40 40 37 29 24 33 36 40 54 50 61 81 85 94 92 92 93 90 89 90 85 80 73 72 75 81 83 79 77 76 74 67 66 73 71 64 63 67 69 66 72 77
36 46 62 67 76 65 40 48 36 37 31 29 31 47 51 60 68 83 92 93 94 93 91 91 91 90 79 76 73 74 73 75 76 79 82 77 70 68 67 65 61 60 60 61 64 66 68 71 79
46 44 65 56 81 65 41 51 43 35 32 31 30 42 61 66 68 80 84 87 92 92 94 87 88 78 69 74 74 73 71 73 72 63 64 68 70 66 56 59 56 55 58 62 68 72 77 83 89
46 53 43 58 80 86 51 35 37 36 40 45 50 53 71 80 85 86 86 90 89 93 91 86 74 68 72 76 73 69 60 60 63 68 62 61 64 53 58 55 56 60 61 64 68 77 82 83 83
32 35 55 64 50 55 44 44 54 46 45 53 57 57 71 69 75 80 81 84 79 76 72 72 68 61 71 67 59 53 57 61 64 68 72 66 67 58 57 56 58 59 62 68 76 82 79 78 84
38 39 41 44 60 62 74 48 34 42 40 50 54 61 66 63 63 68 71 71 67 63 65 68 66 70 71 60 60 60 62 61 63 68 65 57 59 55 56 56 57 59 63 71 74 76 75 78 82
47 43 44 67 44 66 79 50 33 36 40 40 43 57 60 56 54 58 61 63 64 62 61 65 62 63 61 58 62 65 63 68 69 66 63 64 58 59 58 58 58 60 62 69 72 73 74 82 84

GFSSGP_sfc_rhum_057.txt.gz
RH
80 59 47 30 30 36 40 30 25 22 72 71 67 75 88 97 82 80 94 90 92 90 88 93 93 92 90 89 89 89 86 82 79 78 80 78 76 74 75 74 72 68 59 58 59 59 62 74 79
52 40 31 26 28 33 28 24 69 65 70 76 65 75 85 91 89 96 94 92 79 87 88 90 93 91 89 89 89 88 84 81 79 78 76 75 72 72 71 72 73 68 60 57 57 58 61 67 76
40 24 28 32 30 26 24 40 61 65 65 69 69 81 84 93 85 89 90 83 81 87 84 91 93 91 90 89 88 88 88 85 82 79 75 72 71 68 70 76 73 69 60 56 56 58 63 71 77
25 22 22 23 25 20 25 74 74 65 59 62 74 88 81 91 96 86 91 82 87 90 89 95 94 92 89 88 90 90 88 85 82 79 76 72 68 69 73 77 74 70 61 59 59 62 70 76 79
26 25 28 26 22 30 70 68 64 65 64 67 69 89 89 95 90 84 91 87 95 95 94 94 95 91 89 89 90 90 88 85 82 80 78 76 75 75 79 80 78 74 68 63 64 71 73 73 74
30 24 25 26 24 58 71 68 69 63 61 70 66 84 94 95 95 94 93 97 95 98 96 87 93 88 87 86 90 91 89 86 84 82 80 80 80 81 81 81 80 79 77 75 73 75 77 76 75
30 30 29 30 24 39 69 71 70 68 67 58 60 93 91 96 97 96 96 94 94 94 95 97 93 86 81 92 94 93 90 89 87 86 85 84 84 82 82 82 80 79 78 78 77 76 78 79 78
27 24 31 27 28 52 72 77 81 64 61 57 62 94 95 96 96 93 93 95 95 97 98 98 95 92 98 95 94 93 90 90 88 88 87 86 86 85 84 83 81 79 78 77 76 77 78 81 79
22 26 29 25 58 60 73 66 67 65 60 88 94 85 92 96 89 92 96 97 98 97 95 95 95 96 97 95 91 90 88 87 85 85 85 88 89 86 80 81 79 79 78 78 79 78 77 74 74
21 26 22 20 54 73 70 73 65 67 73 91 90 93 94 90 89 93 94 95 94 95 92 92 95 95 94 79 94 92 82 86 86 86 84 85 86 85 78 82 80 80 79 78 74 72 69 62 58
23 23 20 50 61 68 69 77 70 67 70 91 90 93 92 92 92 93 92 91 89 90 94 96 95 96 92 88 96 94 90 88 85 81 82 82 83 90 92 95 95 87 75 65 61 58 57 52 53
22 17 30 57 64 64 69 65 62 69 61 71 84 85 86 91 91 90 88 88 90 94 91 91 94 94 94 91 93 92 84 85 85 82 83 93 96 97 97 96 89 75 72 68 64 65 57 54 50
23 30 33 57 58 63 54 59 59 64 82 84 83 85 85 85 83 80 81 81 85 87 84 88 96 96 91 91 92 92 93 94 97 97 94 97 97 98 94 86 80 77 68 63 61 51 55 55 52
49 56 59 60 59 66 56 61 56 55 76 88 86 90 84 78 70 83 81 80 80 82 81 89 91 86 91 92 91 95 97 98 98 98 97 95 93 92 90 90 78 72 66 63 59 58 60 62 57
37 51 50 53 58 61 64 56 60 55 73 89 88 85 78 72 66 81 76 74 74 77 74 85 85 83 89 90 94 98 98 97 98 97 95 88 88 89 88 89 82 72 66 65 64 65 65 65 56
31 41 58 48 53 46 42 51 50 59 80 94 90 86 76 68 70 79 78 68 73 71 72 77 75 87 91 95 98 99 98 98 96 93 93 88 85 82 84 81 80 74 70 70 70 68 69 71 68
35 36 46 38 44 43 44 41 38 53 67 89 88 84 80 82 83 82 82 67 71 68 80 84 88 90 95 97 98 98 96 97 95 89 90 84 78 78 76 77 77 72 72 74 69 75 70 72 70
42 35 32 32 37 42 45 42 40 50 64 76 88 88 89 88 81 70 80 72 69 74 88 88 91 96 97 98 98 98 98 96 88 86 83 79 80 74 73 75 75 72 75 75 70 68 77 76 74
40 37 36 30 24 36 40 45 37 46 57 72 89 80 88 88 76 72 76 66 73 90 92 92 95 97 94 96 97 98 97 93 86 81 76 78 79 74 72 74 71 72 70 70 68 75 74 77 84
43 48 42 32 29 40 46 43 38 49 55 58 71 78 68 73 71 67 64 67 76 88 89 93 90 95 88 88 98 96 93 89 83 81 80 79 80 74 69 71 69 72 76 73 74 75 82 82 84
41 45 46 41 34 40 35 38 35 40 49 47 52 61 52 57 59 57 57 67 76 92 92 88 88 89 84 92 93 92 84 84 83 85 86 81 73 70 69 68 72 72 74 75 78 77 72 76 80
43 38 42 44 35 34 33 41 43 39 46 42 41 51 48 48 47 50 57 67 74 83 84 84 87 89 88 94 92 89 84 82 84 84 86 79 73 70 67 69 73 75 79 79 79 75 77 76 70
38 43 42 45 44 46 43 39 34 35 43 45 41 39 38 39 43 52 57 63 73 85 92 92 94 92 91 94 93 90 84 81 84 86 83 80 75 72 69 72 75 78 82 74 68 70 71 77 73
38 43 46 54 53 57 46 43 42 40 31 34 37 38 35 38 44 54 58 66 79 94 96 96 94 91 91 95 95 89 85 80 84 88 87 85 82 77 73 71 74 66 66 65 68 69 66 74 80
39 46 59 63 72 62 44 49 42 34 32 30 35 40 43 49 56 74 83 82 94 97 96 96 93 91 95 94 95 88 82 77 78 83 82 84 80 75 70 64 70 76 64 65 62 64 68 74 81
52 43 63 52 74 65 47 56 41 37 40 38 36 43 50 56 65 89 87 91 94 92 93 96 94 92 96 94 91 87 81 81 87 86 81 73 69 65 68 84 71 63 60 59 64 72 76 84 89
49 55 45 65 80 87 58 40 37 38 44 50 47 58 65 65 71 87 90 93 95 92 95 96 96 95 89 86 85 83 84 77 74 68 67 68 76 85 87 63 65 64 59 62 68 77 84 84 84
39 41 55 67 56 59 46 50 48 43 38 49 63 60 77 84 87 91 92 94 95 94 94 96 93 85 80 80 76 70 68 64 64 69 78 79 81 84 73 68 74 61 64 70 76 82 82 80 86
45 46 46 51 60 63 72 54 35 42 40 43 48 58 76 88 92 92 90 90 91 93 93 92 85 81 80 71 68 68 70 70 72 70 76 88 83 76 79 82 74 65 66 76 78 78 77 78 83
40 41 46 68 50 70 80 52 32 37 42 47 48 54 73 76 81 83 84 87 88 85 80 81 78 79 77 68 67 69 68 75 83 86 79 79 84 83 74 74 64 64 65 74 76 75 73 79 84

GFSSGP_sfc_rhum_060.txt.gz
RH
80 54 45 28 31 37 44 31 31 40 45 80 72 73 78 96 87 83 95 92 93 89 85 91 91 90 90 89 89 88 85 82 78 76 78 76 76 76 75 73 69 67 62 62 69 75 77 76 74
55 41 31 28 30 34 28 26 46 81 74 78 71 78 82 89 86 93 92 94 89 87 86 92 92 90 90 89 88 86 81 80 79 77 75 75 76 76 73 72 69 68 65 60 65 69 76 78 84
39 24 30 31 33 26 23 21 58 68 77 73 81 88 90 94 88 88 91 92 94 89 88 92 93 90 90 89 87 86 83 82 80 77 74 73 75 74 70 73 70 67 64 58 60 66 72 78 80
26 21 24 28 32 20 19 32 76 71 70 68 81 92 85 86 97 90 89 84 93 93 94 96 93 91 89 90 90 88 85 83 80 78 76 73 74 72 74 75 70 68 66 59 63 66 74 78 77
27 27 31 30 25 18 63 68 71 68 74 72 74 93 86 93 88 94 92 87 93 94 96 93 92 88 90 90 89 88 86 84 81 78 76 76 76 77 79 78 76 73 71 67 66 70 78 79 77
31 26 29 33 25 22 71 69 74 74 72 71 84 93 96 94 91 98 96 98 97 98 97 91 85 88 90 87 89 90 88 86 84 82 81 80 80 81 81 80 79 78 77 75 75 74 74 75 78
33 32 39 28 23 28 62 72 74 75 73 73 77 96 94 97 97 97 97 97 97 96 97 97 93 92 91 92 93 91 90 89 88 87 86 86 86 84 82 80 79 78 78 78 80 79 77 78 78
31 28 32 26 25 33 68 77 80 69 72 64 86 94 96 97 97 96 95 96 96 96 97 98 97 94 92 94 94 92 91 90 89 89 88 87 86 85 83 83 81 79 79 78 77 80 81 81 80
25 29 32 26 30 36 74 71 68 70 76 92 89 87 93 97 94 97 98 98 98 98 96 96 95 95 93 89 92 91 90 88 88 88 86 89 90 88 82 83 82 80 81 78 75 72 69 67 72
24 31 25 21 33 61 73 70 66 72 88 87 94 94 94 92 90 94 97 97 97 95 95 94 94 94 95 81 96 92 86 89 88 88 85 87 89 86 83 85 83 82 77 74 69 63 60 54 52
24 26 21 26 54 65 72 78 72 70 79 88 90 85 96 92 91 91 92 93 93 93 93 91 92 95 95 93 97 94 91 90 88 84 84 88 90 89 94 94 93 81 68 59 53 52 53 54 54
26 20 20 53 69 69 70 68 70 74 61 77 82 86 92 94 92 90 93 91 91 89 88 87 89 94 94 95 94 93 89 87 88 84 85 92 98 96 97 96 78 73 70 63 62 61 59 57 56
26 42 52 63 66 63 56 66 60 94 93 81 87 87 90 92 88 89 86 85 87 91 85 89 97 98 92 93 93 91 90 90 92 91 90 95 97 98 92 86 78 72 65 62 61 53 48 52 57
59 59 67 64 70 70 56 64 68 89 88 84 83 89 93 91 88 91 89 86 87 84 90 86 97 96 93 94 94 94 95 95 97 97 96 95 97 96 92 89 72 68 65 63 53 52 56 63 61
48 55 50 60 75 62 65 58 67 86 90 93 86 81 87 84 78 85 77 82 82 83 85 94 97 94 95 93 92 97 98 98 98 98 97 94 93 92 90 88 73 69 67 66 57 63 68 66 59
46 42 55 54 56 57 48 53 62 83 92 90 93 84 87 79 78 87 79 75 81 88 86 90 83 90 94 94 96 98 99 98 98 98 96 93 90 86 83 74 73 74 71 69 71 69 71 72 69
37 44 50 36 48 53 51 47 60 83 85 95 92 94 84 79 81 88 87 82 78 83 80 92 94 94 96 97 98 98 98 98 98 98 97 86 82 82 80 74 77 74 74 75 69 75 72 72 70
45 39 33 37 36 53 58 47 49 71 88 94 95 94 87 82 75 82 92 80 85 83 90 94 96 96 97 99 99 99 98 98 96 96 89 82 82 77 74 76 76 74 76 76 71 74 80 76 76
40 38 41 36 30 38 36 48 45 59 84 97 97 97 95 88 72 82 88 85 82 89 95 96 96 98 98 99 99 99 98 96 92 89 82 81 72 72 75 76 75 77 72 71 70 78 75 79 83
44 44 43 38 35 35 44 43 43 52 63 78 90 94 93 92 91 82 88 84 83 87 92 95 94 97 95 93 97 94 95 91 87 84 83 82 78 72 72 74 74 74 76 76 75 77 82 83 84
43 43 48 43 42 43 44 36 41 40 54 58 71 78 78 84 90 84 82 80 78 87 93 91 93 95 92 89 95 93 88 89 86 87 87 85 82 74 71 72 77 77 77 79 79 76 72 76 79
45 38 41 45 44 42 37 38 41 41 50 52 57 74 78 71 74 75 75 77 78 84 91 91 93 94 92 93 92 85 88 90 86 87 87 85 79 75 71 72 75 79 83 80 79 75 78 70 67
41 43 44 46 50 49 49 44 34 44 51 50 50 56 68 62 62 66 67 66 75 88 94 95 95 94 92 91 88 91 93 93 85 86 84 84 81 77 73 76 80 82 83 78 69 70 71 74 74
41 48 47 54 54 59 49 46 45 44 42 44 52 47 51 57 54 54 59 67 85 95 97 96 95 94 92 93 94 93 94 92 84 89 85 88 85 81 79 77 78 72 72 69 70 70 69 76 78
44 47 60 61 71 60 48 53 46 41 34 35 43 45 43 46 50 53 68 73 92 96 96 96 96 96 95 95 96 95 91 89 85 82 86 88 85 85 81 71 82 81 76 78 66 63 66 68 75
54 43 63 50 69 61 50 53 38 38 40 46 39 40 46 45 47 51 59 74 88 92 94 93 95 92 95 96 96 95 92 84 85 84 82 85 79 75 77 85 84 81 76 66 67 74 70 78 89
54 52 46 66 82 86 58 43 29 42 44 49 49 58 56 52 52 56 67 81 90 94 93 92 92 92 95 95 96 96 95 92 88 89 79 75 75 82 89 84 81 86 71 72 79 73 76 86 85
44 43 54 65 60 61 50 48 44 34 39 47 52 52 71 74 75 81 88 92 93 92 91 92 93 94 94 96 96 95 93 86 82 79 80 78 84 86 81 86 84 76 77 73 72 81 82 84 88
50 53 52 53 62 61 72 53 40 33 40 45 48 56 60 84 87 90 93 94 95 95 96 97 97 96 96 93 94 90 82 78 80 77 79 85 88 83 90 81 85 78 74 75 82 84 85 86 82
43 48 49 69 54 72 80 58 32 32 37 47 44 51 64 80 89 92 94 96 98 97 98 98 97 96 92 82 80 81 79 78 82 86 89 92 86 93 81 84 77 76 76 77 82 83 75 80 82

GFSSGP_sfc_rhum_063.txt.gz
RH
59 33 27 18 20 23 20 19 20 26 43 71 67 64 59 62 62 63 83 76 75 78 65 71 90 89 88 88 88 88 86 82 78 78 78 78 77 75 73 71 71 71 70 74 75 72 67 77 80
36 28 22 20 19 18 14 18 18 45 51 67 68 74 71 90 76 82 81 75 80 74 67 67 90 89 88 88 87 86 82 80 78 78 78 78 77 74 72 72 72 74 75 74 73 70 72 81 80
24 18 22 21 21 15 13 14 30 45 61 61 67 76 82 84 81 77 79 81 84 78 71 70 90 89 88 87 86 83 82 80 78 78 78 78 76 73 72 72 71 70 71 71 74 76 81 81 83
17 14 17 19 19 16 14 15 59 58 55 57 68 76 80 83 88 81 81 80 82 85 76 85 89 88 88 87 85 84 82 80 78 78 78 77 75 74 73 72 70 70 69 66 74 75 75 82 84
18 18 20 20 18 14 20 46 61 60 57 60 60 82 80 85 83 85 79 77 87 91 85 79 90 86 89 88 86 85 84 82 80 79 79 77 77 78 76 75 73 72 72 71 70 72 77 79 82
20 18 20 18 18 15 32 57 59 60 59 60 70 79 84 88 91 90 90 88 76 92 86 83 88 85 89 88 88 87 85 84 83 82 81 81 82 82 80 79 78 76 75 75 76 77 78 79 78
22 22 22 21 20 18 36 59 60 62 56 60 60 78 88 96 97 97 96 95 96 96 98 97 95 93 90 92 92 89 87 86 86 87 89 88 86 84 81 79 78 79 78 77 76 79 79 80 80
21 20 21 20 19 19 47 59 60 51 55 66 73 75 92 97 96 96 94 96 96 95 97 98 97 93 96 89 92 92 89 89 90 90 88 86 85 84 84 82 80 80 82 81 79 82 81 77 78
17 19 21 20 20 20 58 52 56 55 66 75 76 72 79 94 92 94 96 98 98 98 97 96 90 96 92 80 89 90 89 89 88 85 88 85 69 63 57 78 84 80 80 76 70 68 72 74 71
17 21 18 16 16 38 61 49 50 54 75 76 82 88 94 92 93 96 94 98 97 97 98 95 93 90 90 89 94 86 73 70 73 71 76 70 71 69 61 72 83 79 75 72 65 61 59 47 32
18 20 18 14 16 48 58 53 52 51 56 63 73 89 94 87 89 94 96 92 90 91 94 94 91 94 90 87 83 76 69 70 69 74 74 74 74 74 72 69 63 55 56 40 44 40 35 42 36
21 17 17 20 50 54 52 52 50 52 45 60 64 79 83 85 92 94 93 93 93 92 89 87 85 75 92 82 76 76 68 72 73 72 74 74 74 81 79 72 56 54 46 48 44 43 48 44 43
20 28 46 47 53 50 49 46 47 67 75 69 72 81 84 86 89 93 89 92 87 83 86 83 77 92 85 84 76 75 74 70 82 80 76 81 78 82 74 68 57 51 44 43 43 40 40 42 41
42 47 50 49 52 51 43 47 44 70 79 78 77 79 80 82 79 92 91 84 78 70 76 75 74 81 83 77 77 72 76 70 75 75 71 80 75 80 75 64 52 48 42 40 39 40 40 38 39
38 40 37 45 50 43 41 40 44 64 77 80 78 81 80 76 74 74 74 75 63 64 62 68 76 81 80 76 73 71 68 68 66 71 85 84 85 80 78 74 56 45 47 52 58 46 43 38 36
35 30 32 35 42 43 38 40 51 80 79 85 78 74 80 78 68 73 66 65 62 63 67 67 70 84 84 77 72 70 73 73 76 87 89 84 83 78 72 53 53 50 48 48 45 42 41 42 38
28 30 34 27 38 39 42 31 61 76 75 75 80 74 80 74 70 71 65 67 67 65 65 70 76 81 84 80 83 84 84 86 87 90 88 83 80 73 63 55 56 55 49 49 44 47 46 43 39
32 29 28 27 29 42 41 37 69 75 71 70 76 77 77 76 68 61 64 64 64 69 68 73 78 82 85 87 85 85 85 85 85 88 83 76 67 66 57 54 56 50 49 50 47 51 50 46 46
29 30 31 26 29 31 36 35 38 75 72 76 79 80 77 72 61 63 62 64 61 70 72 76 81 83 79 84 91 90 93 86 85 82 74 69 60 61 66 51 54 52 49 51 56 54 55 49 51
34 34 32 29 28 30 31 30 34 65 66 65 68 73 70 68 66 66 68 69 68 68 72 75 75 79 75 70 74 75 76 74 75 74 76 68 64 62 64 57 54 54 52 58 58 56 52 51 53
34 36 36 32 35 34 32 26 35 37 53 60 66 63 64 68 67 69 71 72 71 70 75 73 73 75 72 72 72 72 70 71 78 80 69 65 63 61 56 58 56 58 54 54 57 56 55 50 52
40 32 32 35 37 33 28 29 28 31 40 51 54 64 64 66 68 64 67 70 72 72 71 72 74 75 76 77 74 75 72 72 74 73 67 69 68 59 54 54 59 60 56 58 57 53 53 50 43
34 36 37 37 38 36 36 31 27 34 32 34 42 50 60 61 60 62 64 63 66 71 78 76 74 75 77 78 78 78 78 79 81 71 74 71 72 59 54 57 61 61 56 62 60 61 64 65 65
36 39 38 42 42 45 38 34 28 26 31 32 31 39 47 55 58 54 54 58 60 75 77 80 77 76 78 80 80 79 80 81 85 77 71 66 62 60 59 56 60 62 61 57 68 58 69 67 64
33 38 44 52 52 47 40 41 33 28 27 28 31 37 44 47 54 53 53 56 60 71 76 78 76 76 80 86 84 81 80 83 81 74 73 69 64 62 64 62 63 60 60 66 69 58 58 73 62
37 37 55 42 47 40 41 42 26 28 27 33 39 35 37 43 49 49 47 51 62 70 72 79 77 75 80 90 90 89 83 84 79 77 71 68 65 65 66 63 62 66 67 75 76 61 71 63 62
42 42 37 57 66 65 41 33 22 28 28 34 38 39 40 44 42 42 44 52 58 65 72 82 75 73 79 86 91 91 88 86 86 80 71 65 66 65 66 66 70 72 75 74 75 74 72 59 65
35 37 48 52 54 51 38 38 27 27 26 34 32 40 43 50 47 43 42 54 59 62 62 77 73 70 76 79 85 87 86 85 87 84 73 71 69 66 72 74 87 92 77 77 71 69 58 61 62
43 46 46 40 47 48 51 36 35 28 25 34 32 39 43 47 53 52 52 58 62 66 69 74 73 72 76 79 86 91 86 88 86 85 78 72 72 77 82 86 86 82 82 73 73 61 59 62 62
37 42 43 58 49 57 58 44 27 30 30 32 35 36 41 45 49 56 62 70 74 74 73 74 77 80 80 82 88 90 87 85 87 85 79 83 81 89 87 82 78 74 74 79 67 60 55 61 63

GFSSGP_sfc_rhum_066.txt.gz
RH
45 16 12 12 13 10 11 11 9 11 29 26 28 32 37 51 42 49 55 56 58 56 50 62 90 91 90 89 89 88 87 84 81 79 78 78 77 76 74 74 74 73 69 68 71 74 74 72 74
15 15 14 12 12 12 10 9 14 19 28 47 48 49 40 44 57 65 73 52 56 54 46 49 92 89 88 88 88 86 84 81 80 79 79 77 76 75 75 76 80 80 76 68 69 76 73 72 78
15 14 13 12 11 11 11 11 15 24 39 42 45 53 52 60 64 63 51 57 66 55 44 53 90 90 89 88 86 85 82 80 80 80 79 76 75 76 76 79 80 80 76 72 73 78 72 79 85
12 9 11 11 12 10 11 12 21 35 38 39 44 46 64 66 68 54 52 63 74 55 48 81 92 91 89 87 86 84 81 81 81 81 78 76 75 75 76 77 76 78 78 77 78 75 77 86 86
10 9 11 12 11 10 11 22 36 42 38 39 40 51 62 78 67 64 62 74 81 74 69 70 91 90 88 86 85 83 82 82 81 80 78 77 76 76 77 78 77 77 80 78 73 74 80 84 84
11 11 12 11 11 13 13 32 35 44 41 42 43 49 62 72 75 75 71 74 93 96 82 71 87 89 88 86 85 84 82 83 83 81 80 81 82 82 80 80 80 81 80 78 78 79 80 80 80
12 13 12 12 14 15 20 42 44 42 40 40 40 48 58 88 89 82 86 71 82 88 83 88 84 86 93 90 89 88 86 86 86 86 87 86 84 83 82 81 79 78 79 79 81 83 82 79 78
10 11 13 11 13 16 26 36 40 39 42 48 44 42 58 90 92 87 94 96 92 92 96 97 97 93 91 84 87 92 91 91 90 86 86 86 84 85 84 83 82 81 80 79 77 80 81 78 77
11 13 13 13 14 14 30 33 40 38 41 46 50 48 53 85 92 94 96 98 98 98 97 94 95 96 91 76 85 88 91 90 87 81 83 69 46 49 51 78 84 83 81 79 77 77 75 73 66
13 13 12 10 10 12 25 28 34 40 44 42 54 62 72 88 90 96 96 98 98 97 97 94 93 91 88 80 79 76 73 59 56 52 50 40 48 42 47 72 83 79 75 71 65 63 62 52 28
14 14 13 12 12 12 22 31 32 31 32 33 48 69 80 89 88 92 96 96 96 96 96 95 93 79 85 86 90 87 68 65 55 51 43 50 52 55 50 55 48 49 54 34 36 37 31 37 33
18 15 14 13 24 23 24 33 31 32 34 41 45 58 67 81 87 85 92 90 96 95 93 92 88 90 88 89 89 84 63 58 58 46 52 56 52 58 54 49 46 45 38 41 39 39 42 39 36
19 20 28 27 31 32 35 32 31 38 48 45 52 62 76 82 87 87 87 91 92 93 93 95 92 90 87 86 75 56 57 52 48 49 51 48 52 55 51 51 43 41 40 39 40 38 34 35 32
27 29 28 28 30 30 30 32 29 45 52 52 58 63 73 75 82 91 92 95 88 90 91 90 85 82 77 74 61 53 48 49 49 50 52 61 51 58 52 53 45 42 38 36 36 34 30 28 29
27 28 30 30 29 26 27 27 26 34 52 54 55 71 56 57 82 86 89 80 69 61 61 60 66 72 61 63 52 46 42 43 42 42 57 60 60 67 59 54 50 42 39 45 38 35 32 27 25
22 21 19 23 28 29 33 25 24 39 47 56 51 52 54 48 59 53 58 55 52 45 48 50 51 64 67 59 51 43 44 48 48 56 64 69 72 68 73 59 48 43 41 37 36 33 30 28 26
18 18 20 20 22 23 27 24 28 41 44 52 50 47 51 52 49 49 49 45 45 46 44 48 57 64 72 70 59 59 58 52 50 64 64 71 72 73 65 52 48 48 41 40 36 34 32 32 28
20 20 20 21 21 25 22 22 21 39 43 43 48 48 50 52 59 51 49 44 44 49 47 51 53 61 65 67 62 50 48 46 55 68 74 75 72 69 58 48 49 43 41 41 36 39 34 33 34
17 19 20 18 18 22 20 21 18 34 43 43 46 48 52 54 39 46 50 47 42 47 48 52 56 59 65 61 55 50 54 54 61 74 69 69 64 64 57 46 48 44 42 41 46 42 44 40 39
21 22 22 19 19 22 20 19 21 33 43 34 38 44 48 45 46 44 44 47 51 52 54 52 51 56 58 50 49 47 49 48 54 71 68 68 65 59 52 50 48 46 42 49 48 46 42 40 41
23 24 24 22 20 21 24 20 20 22 34 35 34 34 37 39 43 45 44 47 48 48 52 50 51 51 57 52 47 48 50 54 59 75 76 68 65 54 52 53 48 48 44 45 48 47 46 43 43
25 21 22 23 26 23 23 18 16 19 24 32 35 38 36 39 38 38 44 46 49 49 46 49 51 51 56 56 50 54 50 51 54 68 63 65 60 58 51 51 49 49 43 46 46 43 45 44 48
23 26 26 26 28 26 24 20 16 19 18 18 25 31 35 35 38 36 38 42 43 47 50 50 48 52 55 59 56 55 55 50 54 63 63 63 62 57 50 48 50 50 46 49 49 51 50 55 44
26 29 29 29 28 32 25 24 15 14 16 17 17 19 28 34 34 34 34 35 38 49 54 54 50 50 55 62 64 63 62 63 72 69 70 79 70 57 52 44 50 50 48 52 51 52 53 63 50
26 30 35 44 38 34 27 25 19 15 17 18 20 23 22 23 34 34 33 36 36 43 53 54 53 50 56 62 65 67 66 67 71 68 67 69 71 63 56 53 52 49 51 51 52 55 68 64 58
26 26 35 36 36 28 28 24 16 16 16 18 23 24 24 25 26 31 34 34 38 41 50 55 54 54 57 67 67 68 75 74 77 69 69 76 76 65 57 54 52 52 51 54 71 58 54 71 67
32 32 25 37 49 44 22 19 15 14 17 21 16 22 25 25 27 28 30 35 38 42 48 54 51 50 53 66 68 77 77 82 77 74 73 81 78 61 57 57 55 54 60 78 79 78 67 70 60
27 23 35 34 43 38 23 24 17 16 16 17 16 17 24 31 29 26 27 32 35 39 42 51 49 46 46 55 69 69 75 72 77 79 76 84 80 60 58 58 63 85 90 84 69 78 74 69 57
32 31 29 27 32 38 36 24 17 15 15 18 16 20 20 25 30 30 29 29 32 37 42 46 50 44 46 50 62 73 74 77 82 84 83 85 79 62 61 66 85 92 89 85 82 76 72 58 47
23 25 27 36 35 38 43 30 15 16 19 18 19 22 21 26 29 33 34 35 37 40 41 44 48 47 47 52 60 81 83 87 92 91 87 82 81 80 91 94 94 91 84 85 87 82 52 47 46

GFSSGP_sfc_rhum_069.txt.gz
RH
49 23 10 9 13 11 10 8 7 8 9 36 14 14 13 21 67 87 50 42 42 50 48 66 91 91 91 90 90 89 87 85 82 80 80 79 77 78 78 77 77 76 76 72 72 66 66 68 71
14 9 10 10 13 10 9 8 9 9 14 57 30 28 19 20 67 77 62 49 46 47 47 58 94 91 90 90 88 87 85 83 80 80 79 78 77 78 78 78 78 76 76 72 70 66 68 72 77
14 9 12 12 11 11 10 10 9 10 20 23 30 31 25 28 51 49 50 53 55 53 47 63 95 91 90 89 88 86 84 81 80 80 79 78 78 79 83 84 83 78 75 74 68 68 73 79 85
9 8 8 11 10 9 9 11 15 17 23 24 28 38 47 51 58 51 48 55 70 64 53 83 93 91 90 88 87 84 82 82 81 80 78 78 79 81 83 84 81 77 77 76 68 73 79 85 85
8 9 10 10 9 8 11 14 22 25 24 27 27 34 52 67 58 54 54 61 64 70 62 72 92 90 89 88 85 83 83 84 82 79 79 78 78 80 82 84 83 82 83 76 73 77 79 84 83
10 9 11 11 11 10 14 17 21 26 27 30 29 32 44 58 68 67 53 64 77 96 85 82 90 90 88 86 84 85 85 84 82 81 80 80 82 83 84 84 84 84 82 81 81 82 80 80 77
11 10 12 10 9 11 16 23 24 24 26 27 25 30 40 60 76 68 60 69 81 85 95 96 94 88 91 87 88 88 88 87 85 86 87 87 86 84 83 84 83 81 80 80 80 81 81 77 75
8 9 10 9 10 14 16 15 27 28 26 32 30 30 37 67 83 82 76 78 80 85 97 97 97 97 95 86 92 93 94 92 90 89 88 87 85 84 84 82 81 82 82 81 78 81 81 76 74
8 11 12 12 10 15 13 16 23 30 28 32 35 36 48 76 92 96 95 98 96 98 97 94 96 95 89 92 81 91 90 88 88 84 83 72 45 46 47 80 83 83 82 81 78 78 77 74 66
10 12 12 9 9 10 11 15 20 24 24 25 36 46 61 72 85 96 96 98 98 98 97 93 90 91 85 84 84 80 73 65 61 58 57 47 52 43 48 73 83 82 80 76 76 74 74 61 30
10 11 9 9 10 11 11 15 20 21 22 30 33 51 59 70 85 90 96 97 96 97 96 93 92 92 88 91 88 85 83 60 62 60 51 53 52 57 53 59 52 56 60 40 41 42 35 39 34
13 11 11 11 11 17 15 22 23 22 27 29 37 47 54 74 86 91 96 96 95 96 94 95 93 93 91 88 87 88 80 63 58 57 60 62 55 53 54 48 51 47 39 42 40 40 46 41 36
13 14 15 16 18 18 20 21 24 22 29 34 38 48 54 66 70 88 90 94 94 95 94 92 91 91 87 87 86 83 67 57 60 57 62 57 55 59 48 48 46 42 39 42 43 43 37 37 33
18 18 17 17 17 18 21 19 22 31 30 38 38 48 51 72 86 91 92 95 91 92 94 90 92 93 89 88 68 59 58 50 55 57 54 60 53 59 48 50 44 42 42 40 40 39 36 32 31
15 18 25 32 17 17 17 23 24 28 31 38 40 44 41 55 83 88 87 91 89 90 84 91 89 87 78 74 67 57 52 46 43 42 55 54 50 55 53 51 47 43 42 46 41 40 34 30 24
15 16 18 43 24 18 18 49 63 27 34 34 39 38 37 44 56 74 78 82 86 84 83 82 67 70 75 71 59 51 41 44 41 40 46 51 57 59 58 53 54 51 45 43 40 38 34 30 27
14 16 22 20 15 15 19 24 28 24 30 34 35 39 34 40 40 51 48 50 47 56 58 61 59 63 73 66 50 47 52 41 36 43 54 68 70 66 63 58 52 50 45 43 41 39 36 32 28
18 16 15 16 18 17 18 20 20 22 27 32 30 32 34 38 38 40 40 40 39 48 48 48 56 65 69 71 56 46 46 42 42 48 53 63 68 70 67 52 52 51 45 45 42 42 34 33 33
14 15 16 15 14 17 20 19 16 22 28 35 38 36 39 39 39 42 41 40 39 46 43 46 53 58 61 54 49 42 41 38 40 50 61 68 64 66 65 50 52 51 46 48 47 43 45 40 40
16 17 18 16 14 17 17 15 13 21 28 27 31 40 39 39 41 44 44 44 43 45 43 41 40 46 49 43 40 36 37 36 38 58 71 70 64 62 61 54 52 52 46 50 50 46 43 41 42
19 21 21 19 16 15 15 16 15 17 24 23 24 28 32 42 32 37 42 44 41 41 45 41 40 39 43 41 38 38 39 39 42 56 71 68 64 59 59 54 51 52 48 49 51 48 47 44 45
22 16 18 19 20 39 18 25 18 14 18 24 23 26 29 34 31 33 34 38 43 42 42 42 41 38 40 48 42 46 40 41 41 51 61 63 62 62 58 53 53 56 52 52 51 44 48 48 48
20 19 19 20 22 21 17 15 18 11 13 16 22 24 24 27 28 29 33 32 34 39 42 44 41 40 40 52 46 45 47 42 42 51 66 71 65 62 62 56 56 59 56 54 55 51 52 48 52
17 20 22 22 24 31 21 19 20 16 12 12 13 18 22 22 25 24 25 29 32 44 47 44 43 41 42 47 53 51 53 49 42 61 66 67 64 65 75 66 61 61 58 55 52 52 54 60 55
21 26 35 40 37 35 19 20 16 13 13 13 14 16 17 20 24 26 23 24 28 36 43 45 43 41 43 48 52 56 55 54 57 62 63 73 71 73 73 71 67 64 62 55 51 58 61 69 64
22 23 37 45 42 31 18 18 14 11 10 11 13 15 18 19 19 24 25 25 26 30 38 45 43 44 41 49 55 56 57 53 64 65 66 71 71 71 66 71 78 75 68 57 61 60 74 71 71
22 26 19 30 29 39 21 15 13 10 11 13 11 13 16 20 20 19 23 26 28 30 35 47 45 41 41 47 56 58 60 60 65 72 70 70 74 71 76 76 79 78 71 64 72 87 92 90 84
21 19 30 28 40 45 21 19 16 14 14 13 12 13 16 22 21 20 20 24 26 28 32 42 43 38 39 45 56 56 59 66 70 79 76 74 73 76 85 91 93 83 81 86 90 91 89 83 85
22 27 24 21 28 40 36 21 15 14 12 13 13 13 13 16 22 21 21 22 25 28 32 38 42 40 38 40 51 60 60 67 71 82 80 80 83 92 95 94 85 85 92 94 94 89 82 86 83
17 22 23 36 31 30 35 28 13 14 13 14 13 14 13 15 17 22 24 24 25 29 31 36 42 43 39 40 47 64 70 79 86 91 89 90 90 87 90 92 95 96 96 94 90 90 88 84 75

GFSSGP_sfc_rhum_072.txt.gz
RH
47 27 21 16 16 15 15 11 7 9 10 28 17 24 26 19 43 63 74 84 90 88 72 80 91 91 91 90 90 89 88 86 84 83 82 81 81 80 82 82 80 77 73 68 66 66 65 65 70
21 19 15 12 18 19 13 11 11 8 26 24 19 16 19 33 63 69 72 79 89 82 74 78 92 91 90 89 89 88 86 84 83 82 81 80 81 81 82 81 81 79 74 64 65 66 68 70 75
33 16 14 16 18 16 14 11 12 11 27 31 27 22 36 50 68 60 60 72 85 68 61 79 92 90 90 89 89 87 85 83 82 80 80 81 81 81 81 81 82 79 74 66 67 70 72 76 82
14 12 11 15 12 9 10 12 26 25 35 40 49 66 46 48 49 52 56 61 70 71 65 95 92 90 89 89 87 86 84 83 82 80 81 81 84 85 86 82 82 80 74 68 70 74 77 83 80
12 11 14 13 12 11 8 13 43 46 55 59 53 78 74 63 46 53 65 66 82 89 78 89 94 90 88 87 87 85 84 84 82 82 83 86 86 87 86 84 83 80 76 74 75 76 78 81 78
13 11 15 13 13 11 11 15 17 18 23 56 75 73 69 44 65 67 65 75 94 96 94 91 95 87 84 87 86 86 86 85 84 84 84 85 87 88 88 88 86 82 82 83 82 82 80 80 78
13 13 13 11 10 12 23 28 25 20 35 72 57 60 84 71 75 72 80 89 95 95 95 97 95 97 94 91 92 90 88 87 87 86 87 87 88 88 88 87 85 85 85 83 82 82 82 78 74
10 10 11 11 16 11 24 26 24 31 37 34 30 57 87 84 78 81 82 89 93 93 93 91 97 98 97 93 94 93 93 93 91 90 89 87 87 88 86 84 83 83 82 81 80 82 81 76 70
7 12 14 17 14 13 11 12 43 35 31 25 30 65 84 89 88 92 91 97 98 98 97 95 98 94 95 92 89 91 91 90 88 84 82 77 70 74 70 84 84 84 84 82 80 80 78 71 65
10 13 14 13 9 10 10 10 39 43 50 67 68 58 73 82 92 88 96 98 97 97 98 97 95 94 88 89 95 92 83 74 72 69 68 58 68 69 72 85 85 84 84 83 81 78 74 66 48
11 13 10 9 9 10 12 12 20 25 48 61 54 59 62 82 89 96 96 95 97 97 98 96 94 93 93 90 89 90 93 78 73 74 63 71 69 73 75 77 74 76 73 60 65 67 59 56 55
12 9 10 11 11 12 12 13 20 18 35 37 42 52 64 82 90 89 97 96 96 95 96 96 94 95 94 91 93 94 87 74 74 73 72 80 76 71 73 70 72 70 64 63 61 68 63 54 48
12 12 12 11 12 13 12 15 16 18 28 34 40 44 58 74 91 90 93 95 94 96 94 93 95 96 96 95 95 95 92 79 77 77 75 76 75 76 73 72 67 63 63 65 68 65 57 54 47
12 16 14 22 23 20 18 16 25 34 28 34 38 45 62 76 92 94 92 96 94 92 95 95 94 95 91 92 86 88 81 81 83 83 78 73 76 81 75 74 70 67 64 64 66 64 58 57 49
13 16 17 35 26 22 22 19 50 57 48 36 39 45 56 73 85 91 90 92 91 92 90 91 90 91 88 84 85 84 73 64 70 73 69 69 72 74 74 77 74 67 66 69 66 62 60 53 44
16 15 21 28 31 27 25 29 62 68 59 52 40 50 50 60 78 86 88 88 88 89 90 91 76 81 82 77 76 70 57 59 59 67 70 73 73 73 75 76 74 70 71 68 67 64 60 58 52
15 20 18 24 26 21 18 21 44 58 56 46 40 50 41 58 68 72 78 83 87 89 88 88 83 79 80 78 66 64 67 64 61 64 65 74 74 74 77 78 75 72 72 71 66 67 64 58 53
24 19 20 17 18 18 18 18 26 36 56 30 43 44 44 44 54 60 65 70 75 82 79 79 74 75 76 77 83 76 60 54 55 66 69 79 80 81 82 75 75 72 72 72 68 67 61 58 57
16 16 16 22 17 17 16 20 23 20 22 30 32 32 35 38 44 46 49 63 65 75 73 71 68 73 79 81 78 64 67 61 65 64 68 78 79 78 87 79 77 74 72 71 73 68 63 62 61
14 17 17 16 15 16 16 21 16 18 26 28 33 33 38 38 41 45 46 52 60 62 63 64 64 69 73 71 62 56 55 54 52 58 74 80 81 78 79 81 74 75 74 76 72 67 70 70 71
17 20 20 21 16 17 20 21 16 17 21 23 29 35 41 39 45 48 48 50 56 58 56 52 57 64 66 62 52 53 53 59 54 75 80 81 79 75 77 79 75 74 75 78 78 74 71 73 74
23 16 17 17 20 28 26 34 20 16 19 24 27 39 36 36 43 46 48 51 52 52 52 50 47 52 56 56 50 55 51 52 55 74 73 78 79 74 69 74 77 78 77 75 75 65 73 74 76
20 16 20 20 23 23 30 34 19 16 19 22 23 31 36 39 41 44 43 48 48 50 55 54 49 47 48 52 60 58 60 56 56 59 76 80 80 78 68 76 78 80 78 76 72 68 68 77 72
15 19 21 22 26 37 23 23 24 25 16 15 19 23 29 40 40 34 37 41 44 52 53 55 52 48 53 57 60 68 65 64 63 80 82 79 81 85 83 77 88 86 80 77 79 75 74 71 76
19 26 40 50 47 45 30 25 20 26 17 13 15 21 25 28 34 36 36 37 38 46 52 55 54 51 50 62 64 66 69 64 68 76 78 83 87 86 86 86 85 83 83 82 83 83 81 78 73
22 25 46 79 61 41 31 24 12 12 11 12 12 15 20 23 29 29 28 36 37 42 49 53 51 52 50 56 63 65 65 65 68 71 74 77 83 84 85 85 84 82 84 87 90 91 85 84 85
24 28 21 37 41 55 30 20 13 12 12 11 12 15 20 23 24 25 28 32 35 39 49 56 52 48 49 55 62 66 68 68 72 80 87 89 82 79 84 83 84 89 93 93 92 94 96 94 95
19 18 32 31 53 50 24 23 34 19 14 14 13 17 21 25 26 24 24 32 30 34 40 53 52 48 48 49 59 61 67 71 75 86 92 90 87 84 91 90 93 97 96 96 96 96 96 95 96
21 24 29 24 30 48 54 32 23 20 14 16 15 16 19 23 25 26 26 27 31 33 44 48 50 48 48 49 58 68 72 86 90 92 90 92 93 94 95 95 94 95 96 94 96 97 97 95 94
18 23 26 41 35 37 58 39 18 19 19 17 17 15 18 18 20 25 27 28 29 36 39 46 50 50 49 50 60 69 81 88 94 97 98 96 98 94 92 92 92 90 91 94 96 97 93 92 92

GFSSGP_sfc_rhum_075.txt.gz
RH
73 59 47 35 37 35 33 24 15 15 29 35 27 24 36 51 52 61 86 86 88 89 82 91 90 91 90 90 90 88 86 85 85 84 84 83 83 84 82 82 78 74 71 65 62 63 65 68 71
46 29 37 36 33 41 29 17 18 36 36 41 36 44 52 60 65 70 88 83 76 73 79 89 87 89 90 89 89 87 85 85 84 83 83 83 84 84 82 81 77 74 71 64 61 60 66 71 76
52 34 36 32 38 36 31 20 32 36 42 42 46 49 65 74 66 65 66 76 76 72 73 90 91 89 90 90 88 86 86 84 83 83 83 84 85 84 84 81 75 74 72 65 62 64 70 74 77
24 26 26 27 27 20 16 30 36 31 50 63 52 70 57 62 56 65 74 80 78 76 85 76 90 89 90 90 88 86 86 84 83 83 83 84 84 83 84 81 76 75 73 66 65 68 71 77 77
31 30 31 31 23 16 16 31 39 46 63 64 49 65 61 60 56 65 78 85 90 92 89 95 94 90 90 89 87 86 86 84 84 84 84 84 84 84 85 81 78 77 76 72 70 70 74 76 74
28 25 32 27 21 14 28 27 23 48 56 60 58 68 69 66 67 80 83 97 96 97 96 97 97 91 87 88 87 86 86 86 86 88 88 87 87 86 88 82 81 81 82 82 79 79 77 74 73
27 30 29 21 16 24 26 28 31 36 59 60 61 74 78 64 77 93 95 96 95 96 97 97 98 98 94 89 90 90 88 89 90 90 92 91 90 90 88 84 85 86 85 82 80 79 77 73 71
22 22 20 18 25 24 27 31 35 37 40 51 61 89 88 71 86 92 96 97 98 95 97 97 96 97 98 97 95 94 93 92 91 92 93 93 92 90 88 87 86 85 82 81 79 79 75 68 65
21 20 21 22 21 16 23 21 46 44 38 58 76 80 77 88 91 93 98 98 98 98 97 96 96 96 98 98 95 92 90 90 89 88 88 88 86 80 79 85 85 83 82 82 80 77 72 69 61
21 25 20 15 17 18 16 18 41 46 51 56 68 69 80 89 89 97 98 99 100 98 99 98 96 95 94 95 96 93 81 76 74 72 73 76 84 81 81 86 86 85 83 82 80 76 74 57 49
20 21 16 13 16 17 17 16 31 42 57 58 54 74 87 91 92 96 98 96 98 98 98 95 94 92 92 96 98 97 95 72 74 73 69 77 82 85 85 84 86 90 83 79 79 71 61 60 56
19 15 13 14 26 26 25 17 22 65 66 57 62 80 88 90 93 95 97 97 97 97 97 96 93 93 92 92 92 91 90 79 81 69 75 76 79 75 75 76 75 74 70 70 69 74 62 53 46
20 18 16 25 23 24 23 21 26 67 61 56 63 74 89 95 92 95 93 95 95 97 97 95 94 94 91 88 87 81 92 81 80 82 82 79 76 74 78 77 75 73 68 70 77 67 59 54 48
17 18 20 30 25 26 27 30 35 46 52 73 81 80 93 92 90 97 95 97 93 93 96 97 96 94 94 91 87 86 75 84 87 87 83 82 82 80 81 75 74 73 66 73 73 66 60 60 47
20 24 22 36 33 30 31 33 45 51 48 68 69 81 90 87 85 94 93 95 93 93 93 95 95 92 95 89 85 86 64 73 75 80 76 76 84 83 86 81 79 75 70 75 69 66 68 59 50
24 24 30 22 33 30 33 45 46 58 52 77 79 77 86 81 86 90 89 91 91 90 90 90 86 88 90 78 74 66 55 62 65 71 73 74 77 79 86 80 81 76 78 75 74 69 66 64 52
31 34 27 21 30 34 36 41 45 59 56 65 70 70 88 96 87 87 84 86 87 88 89 91 84 80 77 71 64 60 61 71 63 74 77 78 79 81 85 84 81 78 76 75 68 70 66 62 58
36 32 24 27 33 36 36 36 50 62 60 69 72 69 86 91 94 86 83 84 86 88 85 81 77 80 84 90 88 82 79 72 65 72 72 83 85 82 89 87 81 77 76 76 76 70 72 61 58
26 25 23 22 23 26 28 27 39 60 69 79 76 68 80 82 81 84 84 89 94 92 89 84 79 84 88 91 86 82 88 75 68 70 72 83 86 88 91 89 84 84 78 78 72 76 67 67 66
23 22 25 20 23 26 23 25 28 36 62 56 66 59 67 73 82 81 85 88 91 90 86 84 77 78 80 75 74 78 75 68 65 79 84 82 88 91 93 92 91 84 81 77 77 70 73 69 73
22 25 26 27 21 26 32 34 28 29 36 38 42 44 54 63 73 77 82 86 86 88 82 74 70 71 71 71 73 72 75 74 73 81 92 88 88 91 86 93 90 82 81 83 82 73 68 73 83
27 22 22 26 30 39 32 51 34 25 34 34 41 48 48 56 56 66 74 78 80 79 74 68 66 64 66 75 76 73 64 64 60 78 72 90 88 88 87 86 91 84 82 89 77 69 74 74 73
26 25 30 32 35 38 43 48 42 25 31 35 47 51 49 50 54 54 62 64 58 60 63 64 64 65 72 76 72 70 64 60 70 87 83 84 89 86 83 79 87 89 84 89 85 78 74 80 80
21 26 28 34 38 56 36 44 40 29 23 27 40 44 49 46 53 52 50 55 54 57 58 57 56 59 68 70 69 67 74 61 65 88 91 88 89 87 85 85 88 89 90 90 93 90 81 89 85
24 34 60 74 69 68 36 42 38 31 28 25 29 45 42 42 48 52 53 53 54 56 55 54 55 58 62 62 64 68 73 72 59 79 87 90 95 96 92 92 96 95 93 92 89 89 92 91 94
29 34 70 75 82 64 44 44 28 26 26 18 18 33 40 43 42 49 50 54 52 52 54 56 56 57 55 65 62 79 62 62 73 82 82 87 90 90 94 95 94 92 91 90 95 96 97 96 97
35 39 32 60 62 73 56 35 24 19 17 17 19 21 37 45 46 41 46 48 50 53 54 54 58 55 55 74 67 74 81 70 68 80 87 91 95 93 95 94 95 93 94 95 95 96 98 97 98
24 27 44 46 74 77 47 45 45 27 26 20 18 27 27 27 34 41 39 43 43 45 50 56 54 57 55 55 73 68 68 78 84 82 93 95 94 90 94 94 95 96 95 96 96 98 96 95 97
31 30 34 40 54 64 66 54 34 30 25 18 22 24 27 30 30 31 39 36 41 40 46 53 59 54 55 53 64 73 79 80 86 94 97 96 95 95 95 96 96 97 97 96 95 93 93 95 96
21 31 35 67 53 57 68 56 23 21 22 21 20 20 25 33 32 30 31 42 47 55 51 52 60 64 72 66 75 70 85 96 97 97 97 98 98 97 96 96 96 96 94 92 90 95 94 93 94

GFSSGP_sfc_rhum_078.txt.gz
RH
77 65 49 36 30 39 42 29 23 25 40 42 37 44 40 64 64 70 76 81 83 89 85 84 90 91 91 90 88 88 86 86 85 85 85 86 85 84 81 78 76 72 68 64 68 70 71 74 76
53 36 41 40 36 43 36 28 50 49 43 42 48 53 66 63 67 77 77 79 84 88 87 84 92 94 89 89 87 87 86 85 84 84 84 84 85 83 79 78 75 71 68 64 66 68 70 68 74
44 39 40 41 45 43 38 26 41 54 54 46 48 58 61 76 66 70 63 72 83 88 78 86 91 90 92 90 88 86 85 84 84 83 84 84 84 81 79 78 75 72 67 62 66 67 67 73 78
27 29 30 32 33 25 27 19 22 49 51 56 55 52 59 61 63 62 69 67 83 83 78 86 91 88 89 90 88 86 85 84 84 83 85 85 84 80 79 78 76 73 69 64 65 66 70 74 77
35 33 35 42 31 24 17 21 36 51 59 62 57 56 62 67 56 71 86 78 86 93 88 85 91 87 88 91 88 86 85 85 84 85 86 86 84 80 80 79 77 75 73 68 66 68 74 73 77
38 32 39 42 30 21 23 28 41 52 60 64 58 68 74 66 77 86 93 97 97 97 96 87 90 85 88 92 88 86 86 86 86 86 86 86 85 82 82 82 81 80 80 78 76 76 74 73 74
37 34 39 34 25 20 23 32 36 55 64 67 65 75 72 66 81 92 93 96 97 98 98 96 98 94 96 93 90 92 90 88 88 88 87 90 88 84 84 85 85 84 81 78 76 75 75 73 70
29 30 38 29 22 21 22 33 39 49 68 62 59 70 63 69 98 95 95 96 96 97 98 98 97 98 97 98 93 92 92 93 93 93 93 94 89 88 88 88 85 82 80 78 75 74 72 70 68
23 33 35 28 20 20 26 23 46 46 63 64 68 67 69 96 88 93 97 98 98 99 98 97 96 96 96 98 96 92 94 95 95 94 94 91 88 88 84 86 84 82 82 78 76 75 73 66 69
26 31 27 18 17 19 21 23 42 51 62 66 68 67 76 84 91 96 98 100 99 98 98 97 95 95 94 96 96 96 90 86 87 87 87 87 89 86 84 86 84 82 81 80 78 76 68 62 54
26 27 18 17 19 22 28 28 42 49 64 60 58 76 90 90 92 96 98 98 93 98 97 96 94 93 93 95 95 99 96 83 83 80 82 86 88 87 84 84 87 85 83 84 77 64 65 56 53
24 18 17 17 26 29 31 32 65 70 64 62 68 84 93 88 92 94 97 98 98 98 98 96 94 93 93 90 92 94 90 90 81 84 83 88 86 88 85 79 80 74 79 79 74 74 59 53 49
22 21 19 21 25 26 27 35 69 75 75 65 74 75 94 93 90 93 94 96 97 97 98 97 95 94 91 87 84 82 81 75 78 79 84 79 79 81 83 75 75 73 74 75 80 66 59 53 51
24 24 23 26 27 30 31 38 50 81 74 66 59 72 96 84 92 97 97 97 96 96 97 96 94 92 88 84 79 72 77 83 81 83 85 81 79 79 73 75 76 74 71 77 73 66 61 57 50
25 28 25 25 32 34 32 32 54 72 62 66 70 84 98 81 90 92 93 94 94 96 95 93 92 87 84 80 85 86 75 73 79 78 80 75 80 89 83 84 83 79 75 82 74 68 68 59 50
30 32 35 24 32 34 28 38 58 66 66 68 80 87 79 76 86 92 92 92 90 95 95 94 90 92 89 81 76 68 69 72 72 74 79 79 83 86 87 82 84 84 82 82 76 76 72 64 56
42 42 36 30 23 34 34 39 58 70 70 81 87 94 95 95 89 90 87 89 90 90 93 94 91 88 86 83 77 71 66 64 67 77 77 83 87 86 88 86 87 85 85 83 75 75 70 67 59
45 42 32 33 28 38 44 41 64 65 63 74 88 96 95 88 94 88 86 83 84 84 85 84 84 83 83 88 85 72 74 67 67 80 82 83 87 86 92 91 88 86 84 83 78 72 76 67 63
34 34 35 29 22 38 41 43 37 68 73 77 90 95 95 86 93 92 86 82 86 86 84 84 82 82 85 86 75 62 57 84 82 76 79 85 86 89 92 93 86 86 76 77 78 78 75 74 70
32 35 33 25 21 30 30 28 32 68 69 71 79 88 90 93 91 89 96 82 85 86 91 87 81 86 80 75 66 63 77 92 82 78 80 86 90 92 92 89 86 88 86 83 82 79 79 72 76
33 34 32 26 26 29 35 34 32 47 58 64 68 70 75 85 92 87 90 92 87 84 92 87 80 78 78 75 72 90 90 88 86 84 80 87 88 89 90 92 89 92 88 84 84 79 73 71 78
37 26 27 29 37 44 36 49 41 36 48 60 61 64 74 77 83 87 91 97 96 94 94 85 78 73 73 75 72 75 73 68 68 67 70 86 87 88 91 91 93 94 90 89 83 79 75 71 74
34 27 28 31 37 44 44 50 40 37 47 56 64 62 68 73 80 84 86 85 86 87 91 83 76 72 68 73 67 74 79 75 75 79 82 92 93 90 90 92 94 94 92 90 93 86 80 85 88
24 28 35 40 43 55 42 47 46 43 32 44 51 55 62 68 74 76 76 75 78 77 80 77 74 69 67 68 73 82 83 76 75 79 85 86 90 91 92 92 94 94 92 95 93 91 86 89 92
27 38 59 63 70 64 44 50 39 34 29 33 48 52 60 61 64 75 77 76 70 72 72 71 70 69 67 70 76 82 84 80 69 75 75 78 89 91 91 92 94 92 92 93 92 90 92 95 96
33 36 65 63 76 70 50 52 37 27 27 26 33 45 50 57 58 62 69 70 59 61 63 65 65 66 64 68 79 84 77 76 71 65 77 81 84 87 89 91 89 96 96 95 95 96 97 96 97
32 45 37 59 70 76 62 47 29 24 24 25 33 48 53 51 56 57 57 62 66 53 57 62 62 62 62 63 72 78 80 72 70 71 77 86 88 89 92 92 95 96 96 96 96 96 97 96 98
28 30 52 63 77 76 60 56 44 33 25 24 32 49 52 46 51 53 54 57 60 61 60 66 61 57 57 58 64 67 76 76 71 84 88 89 92 93 96 98 97 98 98 97 96 97 98 98 98
35 38 43 43 64 74 68 54 42 34 30 24 25 33 43 48 49 48 48 51 54 55 62 66 67 63 65 65 74 70 70 80 84 91 95 97 97 98 98 98 98 98 97 97 96 97 96 96 96
23 28 34 65 57 63 69 46 31 33 28 25 24 26 30 35 42 47 46 47 51 57 58 59 65 69 62 65 66 79 81 84 89 98 98 97 99 99 97 98 97 97 97 97 96 96 93 93 93

GFSSGP_sfc_rhum_081.txt.gz
RH
74 71 50 34 29 40 50 32 29 28 44 43 43 50 46 72 62 64 78 77 85 86 91 92 92 91 91 90 89 87 87 85 85 85 84 84 83 82 79 75 75 75 73 70 70 71 72 74 77
58 41 40 38 37 43 36 30 38 47 45 50 49 55 68 82 72 69 69 76 86 87 88 92 91 89 89 90 90 87 86 86 85 85 84 84 82 81 78 75 75 76 75 70 71 71 71 74 78
47 38 37 44 48 44 39 28 29 47 56 55 51 64 65 83 70 74 64 72 84 93 84 87 92 90 88 89 90 88 86 86 85 85 84 84 81 80 77 75 75 76 74 69 67 65 71 77 78
29 31 31 36 39 30 30 22 21 44 54 60 59 61 67 65 61 62 66 79 89 94 87 94 93 85 80 83 88 88 86 86 85 85 85 83 80 79 77 75 73 75 74 66 64 71 76 81 80
37 35 38 45 35 27 23 20 23 43 55 61 64 58 65 71 63 84 92 86 89 93 90 89 93 90 84 84 88 88 87 86 86 86 85 82 80 80 79 75 74 75 74 69 66 76 83 81 78
36 34 41 44 34 25 22 25 43 51 58 61 58 67 77 76 82 94 90 93 94 96 94 92 90 89 87 86 86 88 88 86 88 87 85 81 82 81 80 79 78 78 77 74 73 78 80 80 78
36 39 47 41 32 27 20 34 51 55 65 57 68 66 75 83 94 94 93 96 97 97 95 96 97 97 96 94 88 90 90 88 90 89 86 83 84 84 83 83 82 78 75 73 72 71 79 80 79
32 35 58 38 32 25 17 35 45 58 62 65 61 63 68 87 93 94 95 97 98 96 94 96 98 99 99 98 95 93 90 92 90 91 89 88 88 87 86 84 80 78 74 71 69 73 79 80 82
28 35 41 34 28 19 18 26 49 58 71 67 68 70 69 89 96 96 98 98 99 99 97 98 99 99 98 96 92 94 90 94 94 95 93 91 89 89 84 82 81 79 77 76 71 70 82 83 82
30 37 32 24 19 20 19 26 46 57 68 65 69 74 69 92 96 97 94 98 98 99 99 98 98 98 97 97 93 95 91 90 89 90 86 89 92 87 83 84 82 80 79 77 75 71 68 66 72
31 32 26 19 20 20 23 35 47 54 72 61 62 67 92 96 98 93 98 97 99 98 98 97 97 96 96 97 96 98 98 97 92 89 87 91 89 87 83 82 85 84 77 70 65 65 53 52 66
29 22 22 19 20 32 35 44 68 66 61 60 58 74 88 97 97 96 98 99 98 98 98 96 95 95 96 96 96 95 98 96 95 94 92 92 93 98 92 89 91 78 80 71 72 69 59 55 63
23 21 23 23 24 31 30 39 61 76 78 77 81 90 94 93 98 98 96 97 98 98 99 98 94 93 90 89 87 93 96 93 96 95 93 94 84 85 85 86 84 74 77 71 69 61 57 56 54
28 27 27 26 26 31 46 63 62 60 83 66 66 95 97 97 98 95 97 98 96 97 98 98 94 91 88 83 84 86 86 84 91 93 90 85 79 80 76 84 82 77 73 74 69 63 59 56 54
30 29 29 27 29 31 31 50 53 62 81 73 72 94 92 93 96 96 95 95 94 96 97 97 96 92 90 82 77 82 76 78 84 84 84 80 82 84 82 86 84 79 81 80 73 68 66 58 50
33 39 38 28 28 29 31 34 39 81 76 74 86 96 91 91 94 93 91 90 94 95 96 94 90 96 95 87 82 79 73 77 81 79 78 77 80 81 79 82 84 84 83 80 77 76 72 64 56
46 45 41 33 28 31 40 35 40 74 73 78 96 97 92 95 92 90 90 89 93 94 95 98 95 95 91 87 78 78 80 79 77 81 74 82 85 86 76 84 87 86 83 84 76 81 73 67 61
48 48 40 40 35 40 44 42 65 79 83 90 98 99 97 93 89 84 89 89 90 92 91 93 94 94 94 95 86 76 74 71 76 81 74 86 86 89 91 90 91 91 89 90 84 78 77 70 65
39 43 44 34 28 35 36 38 46 75 80 86 96 99 98 96 82 80 86 88 88 88 88 91 92 89 88 93 92 82 76 72 73 75 78 86 90 89 93 95 92 90 85 82 83 81 76 75 72
40 43 41 34 28 34 37 35 33 72 73 70 88 97 95 96 97 87 82 88 91 88 87 83 82 81 82 80 69 68 66 78 72 73 77 87 86 92 93 94 89 89 86 88 86 79 82 80 77
41 44 41 39 30 30 36 36 37 55 68 71 71 84 87 91 92 80 85 84 87 87 90 85 79 80 73 70 70 76 75 79 78 81 88 91 90 92 92 93 92 90 89 85 85 84 77 80 83
44 36 35 35 40 47 39 49 40 44 66 73 65 81 86 88 90 87 84 84 83 81 83 92 83 77 75 74 78 81 61 56 61 71 79 87 93 94 93 93 94 91 90 93 88 89 89 84 76
39 35 37 38 39 48 46 52 44 48 60 62 70 72 77 80 86 94 94 90 87 85 83 94 86 80 77 81 78 82 75 72 76 84 84 86 90 93 95 94 95 95 95 92 92 93 90 89 88
32 40 42 49 48 58 45 48 46 47 39 46 56 63 68 77 83 85 89 93 96 96 96 96 89 82 76 79 80 80 82 75 82 90 88 78 86 92 94 94 94 93 94 95 94 94 92 90 90
37 43 62 63 66 60 43 56 42 36 35 41 52 59 64 69 80 84 89 91 90 95 96 92 86 81 75 75 78 76 80 82 79 79 81 80 85 91 93 96 96 94 93 94 95 96 94 93 91
38 41 68 61 70 61 57 65 46 32 30 32 41 47 58 68 73 79 79 82 80 83 86 84 80 77 74 74 76 78 76 78 80 76 78 80 80 84 90 93 91 92 94 96 97 97 97 97 97
37 48 33 55 79 81 64 53 36 26 29 37 41 56 59 65 70 72 73 76 76 73 76 78 73 71 69 71 70 73 76 76 79 84 78 82 82 84 92 91 92 96 98 98 98 98 98 96 96
28 35 54 68 74 79 67 63 53 36 27 28 46 56 57 59 65 65 68 73 72 68 70 75 70 67 64 65 68 66 75 82 83 84 86 86 92 96 97 97 98 99 98 99 98 98 98 97 98
41 43 46 47 67 67 75 60 44 39 30 26 32 54 57 59 59 61 61 62 67 70 67 72 72 68 69 67 66 69 69 79 86 86 85 94 98 98 99 99 99 99 99 99 99 99 98 97 99
25 31 42 59 61 69 69 49 33 36 37 35 26 33 53 54 53 54 56 59 62 67 68 64 68 69 67 68 68 69 74 81 86 88 91 91 92 96 96 98 98 99 98 98 98 98 98 97 98

GFSSGP_sfc_rhum_084.txt.gz
RH
74 67 50 31 27 38 49 36 33 34 44 53 51 58 52 68 55 55 73 76 89 94 94 91 92 90 88 89 87 87 87 86 86 86 86 86 85 82 78 78 77 76 73 69 70 69 68 71 74
57 44 38 37 37 43 34 33 29 41 46 56 51 59 70 67 75 72 74 72 90 90 93 90 93 91 90 88 86 84 84 84 86 86 85 85 83 79 78 78 77 76 74 68 71 72 73 71 73
47 37 34 42 50 41 38 30 25 36 46 52 55 64 68 78 76 75 73 82 89 92 90 90 92 91 90 90 89 85 84 85 85 86 85 84 81 78 79 79 78 76 74 71 70 72 75 75 78
31 32 32 37 46 33 30 25 26 29 54 64 62 60 66 70 66 68 80 88 87 92 95 94 96 91 90 89 88 88 87 86 85 85 83 83 80 78 79 80 78 77 74 68 72 76 76 80 79
36 34 39 48 38 30 28 24 25 35 46 60 63 57 63 72 74 85 95 92 89 94 95 95 96 90 88 88 88 88 87 86 85 85 83 82 80 79 79 79 78 75 72 71 74 77 79 80 80
34 35 41 41 34 27 26 23 40 40 57 64 67 66 70 81 92 93 88 94 92 93 94 96 91 89 88 85 87 87 88 87 87 85 83 82 80 79 79 80 78 75 76 83 83 82 80 80 78
34 40 47 57 36 30 23 32 53 52 64 60 73 74 73 79 93 94 92 95 95 96 97 97 98 96 94 96 83 90 89 88 88 85 83 83 84 82 81 80 78 76 80 85 83 79 79 79 78
35 37 59 44 36 29 22 35 48 56 56 69 61 64 63 78 93 94 95 96 97 98 94 96 99 99 99 98 98 95 91 90 89 86 86 87 88 86 84 80 76 75 74 82 82 81 80 79 79
32 38 45 38 33 24 19 27 48 63 72 73 72 71 70 83 94 96 98 96 99 97 96 96 99 99 98 99 99 95 88 91 90 87 88 90 90 91 87 79 76 73 74 78 82 82 83 81 81
32 41 35 28 25 22 21 25 26 66 77 69 69 76 72 94 96 95 96 98 98 97 98 99 98 98 97 97 98 97 92 88 90 86 85 87 91 91 86 83 78 74 74 80 84 85 84 81 82
33 34 30 24 23 24 26 30 47 59 68 64 64 74 80 93 96 91 92 92 98 98 98 98 98 97 97 98 96 99 96 94 93 88 86 91 94 96 92 85 77 73 71 68 69 69 70 80 83
32 26 25 21 23 30 37 39 62 58 52 70 65 74 92 96 98 90 93 98 98 98 98 98 97 97 96 97 96 95 96 95 96 94 90 89 90 96 97 93 85 80 75 65 62 63 68 76 81
28 24 24 23 27 29 33 35 53 72 72 87 92 92 89 88 97 92 92 96 98 98 98 98 96 96 93 93 96 97 97 96 99 95 92 91 85 89 86 89 85 80 76 61 62 58 61 72 76
28 28 29 30 28 30 36 51 72 54 83 71 81 98 87 87 93 90 95 97 98 97 99 98 95 93 90 91 93 96 96 98 98 97 94 87 82 83 78 85 81 76 73 70 59 53 55 61 69
32 37 32 30 32 30 38 39 70 60 86 80 75 94 90 98 98 91 92 95 94 97 98 97 95 92 89 86 86 92 95 96 97 95 92 83 80 80 78 80 80 72 79 73 65 64 57 56 53
39 38 42 27 32 33 32 40 34 82 90 90 82 98 96 97 97 90 91 92 94 96 97 97 91 93 92 85 78 74 84 91 92 91 89 80 82 80 79 74 78 78 82 78 72 66 64 62 58
46 48 43 35 32 37 41 39 46 86 81 76 83 99 94 90 81 91 87 90 93 95 97 98 96 96 97 94 94 93 87 89 88 86 86 83 81 81 76 76 81 79 83 82 74 78 68 65 59
50 50 44 44 38 37 44 43 33 79 80 82 91 98 97 95 80 88 89 89 92 94 95 95 96 95 96 94 91 94 90 86 88 85 82 84 80 80 87 85 84 80 86 86 82 79 78 69 63
40 44 47 40 33 35 36 39 33 68 88 90 95 98 97 98 75 86 88 90 92 93 94 93 95 97 94 92 94 88 82 88 87 85 81 87 82 84 87 88 86 89 84 88 83 82 77 76 71
43 46 45 37 32 35 34 36 33 54 76 81 92 95 95 98 87 82 90 94 93 92 92 90 86 89 92 90 96 91 73 78 82 86 88 88 86 89 89 88 88 92 92 90 88 81 84 79 75
45 45 46 37 39 37 41 41 35 44 75 73 81 89 92 92 97 84 84 93 91 93 91 88 83 80 78 86 82 79 73 78 84 87 87 89 89 92 88 93 92 94 90 89 86 86 80 83 84
47 40 38 41 46 55 41 56 43 34 41 75 76 93 92 93 94 92 82 82 88 88 86 83 80 76 74 74 71 69 68 67 61 72 74 78 85 92 93 92 94 93 91 92 87 88 89 87 87
38 38 43 44 49 60 51 58 42 46 44 43 70 78 85 87 92 93 90 88 77 78 87 86 81 82 78 71 71 79 66 63 72 77 78 85 91 91 92 93 95 95 94 91 92 94 92 92 92
36 44 44 53 54 68 49 48 46 44 42 43 49 67 80 85 87 92 91 85 82 79 78 83 89 88 83 81 83 84 84 79 78 83 87 87 91 96 95 96 95 94 94 94 93 92 92 89 89
41 47 64 67 72 68 46 55 37 37 35 36 37 56 71 79 83 92 97 93 90 87 83 84 90 89 85 85 85 83 86 82 72 70 75 78 89 95 95 96 97 96 95 94 93 95 94 94 93
44 46 73 64 72 60 57 64 48 38 35 33 36 52 68 78 80 84 89 94 96 95 89 89 94 89 84 83 84 86 80 80 78 76 73 82 80 86 91 96 95 95 95 95 96 95 96 97 97
40 52 40 59 80 80 64 54 39 34 28 33 40 60 72 76 81 81 80 84 89 92 95 96 93 88 84 82 81 83 84 78 77 83 91 93 92 91 92 94 95 96 97 97 97 97 98 98 97
32 37 53 69 69 75 69 70 49 41 35 29 42 55 62 73 79 80 80 80 80 80 85 90 85 83 77 77 77 76 80 81 81 89 92 90 92 92 94 95 96 97 98 98 99 99 99 99 99
43 39 50 52 65 64 72 64 50 36 34 35 29 43 57 68 76 74 74 75 76 77 80 86 84 78 77 76 76 75 74 79 80 83 85 89 91 89 92 94 96 98 98 99 98 99 98 99 98
32 34 35 49 63 73 66 45 36 38 37 35 31 28 51 64 68 71 73 76 79 79 76 77 79 78 75 74 74 74 73 75 80 85 86 86 91 89 91 93 95 96 97 98 98 98 98 98 98

GFSSGP_sfc_rhum_087.txt.gz
RH
58 38 29 20 18 22 22 22 22 21 26 32 37 41 34 39 37 35 56 63 77 79 76 78 92 90 89 90 89 88 87 86 85 84 85 86 85 83 81 79 77 75 72 68 67 68 69 73 76
38 32 25 23 21 20 18 21 20 20 25 40 42 47 51 39 55 56 59 60 67 81 79 72 91 89 90 90 89 88 87 86 85 86 86 85 83 81 79 78 77 75 73 68 67 68 70 74 76
34 26 22 24 27 20 19 20 17 18 26 30 37 46 45 49 57 55 62 63 64 80 84 75 93 88 89 89 89 88 86 86 85 86 85 83 81 81 80 79 78 76 74 69 69 71 72 76 80
24 21 22 22 22 21 20 16 18 18 30 43 44 44 44 45 50 56 66 79 74 78 87 93 92 91 89 88 88 87 87 86 86 86 84 81 82 81 80 80 78 75 73 73 72 73 74 80 80
23 21 23 24 23 21 19 18 19 20 27 48 44 40 46 53 62 63 77 79 82 79 86 87 96 94 83 87 87 87 87 87 86 86 83 81 82 82 81 80 79 78 77 77 75 74 76 80 80
22 22 23 21 21 20 19 18 19 28 28 46 51 50 44 58 67 77 81 81 85 84 87 92 93 94 96 80 88 88 88 87 86 85 82 81 82 83 82 82 79 77 80 82 80 80 78 79 79
21 23 22 24 25 23 18 19 31 29 36 37 45 44 48 61 72 83 82 85 86 83 86 87 94 94 90 98 90 89 88 88 86 85 82 83 84 83 83 81 79 82 82 84 82 81 81 79 79
23 23 29 27 23 20 17 18 23 30 24 52 47 46 46 55 82 83 86 86 91 84 87 85 92 92 94 99 97 97 93 90 87 85 85 86 85 85 84 81 83 87 86 84 80 82 81 80 81
21 24 26 24 25 19 17 17 26 42 41 53 51 57 55 75 81 83 85 86 94 94 88 89 93 94 95 98 96 97 96 94 90 86 88 83 69 69 68 72 82 87 85 81 81 81 81 81 81
20 26 24 20 20 18 17 19 18 31 42 42 51 59 65 79 83 83 84 87 87 94 92 89 92 94 97 96 97 97 97 94 88 84 75 71 74 67 61 71 80 84 85 82 82 82 83 66 52
24 21 23 20 18 17 19 20 20 32 29 38 36 48 64 85 85 85 84 86 87 92 91 91 89 91 95 97 98 98 98 99 95 86 72 80 70 71 65 64 55 66 76 61 66 67 50 57 52
24 21 21 18 17 21 23 24 37 39 26 54 47 51 67 82 83 84 85 80 89 91 93 95 94 92 91 97 98 98 95 97 96 91 86 74 70 71 69 57 54 58 59 67 64 59 63 63 57
24 20 19 18 19 22 23 23 25 34 50 61 64 66 73 79 83 82 81 85 87 97 98 98 95 91 88 91 97 98 94 93 96 94 84 75 68 72 64 63 50 50 52 56 59 61 58 60 59
23 21 20 23 22 22 22 27 49 36 59 79 78 74 74 74 77 80 85 88 92 94 98 98 96 89 90 90 94 97 95 96 94 94 86 80 72 74 67 61 52 50 46 46 52 55 56 55 57
25 28 26 23 21 20 24 26 35 36 68 69 76 75 70 73 83 80 77 87 87 95 98 97 95 96 91 96 98 97 96 94 93 94 84 82 77 75 73 66 56 52 50 55 55 53 54 52 53
29 30 28 20 24 27 25 27 24 45 67 66 73 76 77 82 80 76 80 84 87 94 97 94 91 94 90 91 97 95 95 94 96 92 85 80 79 75 72 68 60 60 55 50 45 45 46 48 49
34 28 30 23 25 27 28 27 22 57 66 67 71 85 82 77 72 77 81 85 86 92 96 97 93 94 93 90 90 94 93 95 96 93 81 82 80 77 70 70 66 66 56 53 47 49 46 44 42
27 38 36 30 26 27 26 27 23 34 51 49 58 71 76 75 69 75 77 85 86 93 95 96 94 95 97 96 96 96 94 96 95 95 81 76 69 71 73 62 68 67 61 60 56 55 53 47 42
29 34 33 29 27 27 23 27 23 24 49 56 64 73 77 76 65 73 83 88 88 90 93 94 94 95 94 92 96 91 97 96 92 85 83 77 68 70 68 65 65 66 68 64 66 65 62 55 52
33 36 34 29 28 30 26 26 23 33 37 42 54 66 72 74 71 75 85 89 90 92 92 90 91 91 89 89 93 83 88 84 86 87 87 85 81 73 72 67 64 67 64 72 70 66 61 57 55
38 38 36 32 31 28 32 30 26 26 44 50 56 54 64 69 71 70 82 84 85 90 93 87 87 88 90 94 90 92 79 84 89 90 92 86 80 70 64 68 66 72 65 65 69 67 65 60 60
41 34 32 34 34 28 32 38 30 23 24 45 44 62 61 68 67 65 75 83 85 83 84 83 82 83 86 86 84 87 69 76 72 76 80 84 81 71 63 65 68 72 69 68 68 68 70 69 65
33 33 36 35 37 39 34 40 30 30 25 24 32 49 60 64 68 68 71 71 73 78 82 79 79 78 78 83 76 77 69 59 76 75 77 79 73 72 71 71 74 76 78 76 79 79 79 74 69
32 34 38 44 43 52 40 40 30 24 24 27 31 43 56 62 67 62 65 68 69 76 80 81 79 75 74 75 72 74 71 66 68 68 69 70 71 73 76 74 78 79 78 81 81 80 79 77 75
33 42 49 57 58 49 38 44 33 27 25 26 23 32 51 58 64 66 67 71 70 73 76 81 79 76 73 72 69 70 69 68 63 65 62 64 69 72 72 76 78 76 78 79 79 80 81 81 81
41 40 48 45 55 43 44 42 30 27 27 28 29 29 45 59 60 63 63 66 70 72 76 77 80 79 76 74 71 70 67 62 61 61 58 60 61 63 68 73 72 74 74 78 80 83 84 83 90
42 46 33 48 62 59 44 41 33 27 27 24 24 38 51 59 60 59 63 67 69 71 77 82 80 80 76 76 74 72 71 68 64 65 63 64 68 68 70 72 72 74 77 79 82 87 88 89 92
31 35 48 47 47 48 45 50 33 31 28 28 25 33 45 58 63 59 61 67 67 69 73 84 80 81 72 71 73 71 71 69 68 71 72 68 68 68 68 72 72 73 77 80 84 90 90 94 96
32 34 40 40 50 43 48 44 43 32 26 28 28 27 36 54 60 61 59 60 63 67 72 81 82 75 72 70 72 73 71 72 72 74 74 72 71 70 71 68 71 78 87 96 98 96 96 98 98
27 32 32 43 39 59 54 38 30 34 34 32 29 27 25 38 53 58 60 62 64 67 68 70 74 74 70 69 70 72 72 74 77 78 74 75 75 74 74 73 77 82 86 92 97 98 97 98 97

GFSSGP_sfc_rhum_090.txt.gz
RH
48 19 15 15 14 12 12 13 12 13 15 15 18 22 21 20 22 23 37 42 56 57 54 60 92 90 90 89 88 89 88 87 87 84 85 85 85 85 84 82 80 77 74 69 68 71 71 74 76
18 19 18 13 14 12 12 13 14 12 12 19 19 24 28 22 24 33 39 50 46 53 58 52 94 89 85 87 88 88 87 87 85 85 85 85 84 84 82 80 78 76 73 67 67 72 72 76 78
22 20 15 13 12 11 11 13 12 12 13 15 19 26 24 19 34 34 46 49 49 48 64 57 91 90 89 89 89 87 87 86 84 85 85 85 84 82 80 79 77 75 72 66 66 69 75 79 83
17 14 13 14 12 12 12 12 12 12 16 15 19 28 25 26 33 37 44 51 52 51 58 84 96 92 89 88 87 89 86 86 86 86 85 84 82 81 80 79 77 75 73 69 70 73 77 82 83
13 12 12 11 11 12 11 11 13 14 15 23 26 24 31 32 33 38 44 54 62 53 60 83 94 94 91 83 77 86 88 87 87 86 84 82 82 82 80 79 78 76 76 74 72 76 78 82 83
13 13 11 9 10 12 11 12 13 16 15 18 28 26 25 35 40 44 55 60 66 70 68 82 85 91 92 85 90 91 89 88 87 85 84 83 83 82 81 80 80 81 81 79 77 78 78 79 79
13 12 10 9 9 13 12 12 16 14 13 13 21 23 21 38 43 60 60 62 76 70 79 79 73 81 88 90 89 95 90 89 88 85 85 84 84 82 83 83 84 85 83 82 80 81 81 79 79
12 12 11 10 9 10 11 12 12 14 13 27 24 23 22 36 51 60 62 63 74 73 76 76 70 86 83 89 97 98 94 92 88 86 86 87 86 86 83 83 85 86 84 83 82 83 82 81 82
13 13 11 10 11 11 12 13 12 17 19 20 23 30 28 43 55 57 58 62 75 83 79 83 80 88 84 84 94 98 99 90 89 87 89 87 65 65 65 70 86 87 85 83 83 83 83 83 83
13 12 11 10 10 12 12 12 13 14 12 15 19 30 38 46 51 52 62 59 60 74 83 74 75 81 87 82 93 94 97 92 84 78 75 67 70 59 49 74 89 86 83 83 83 84 84 64 41
12 13 9 11 11 11 12 12 12 14 14 14 16 20 36 47 55 56 59 59 59 58 82 82 80 75 91 88 92 95 98 96 93 86 69 74 69 60 54 61 65 63 68 49 55 58 40 40 36
15 12 10 10 11 13 13 12 14 14 13 15 26 29 34 48 56 58 61 57 55 60 68 87 85 82 88 96 97 95 98 96 95 90 78 77 71 58 53 47 50 55 46 50 47 42 44 44 39
18 12 11 10 12 12 13 15 14 12 10 13 32 35 38 48 55 69 63 60 60 67 79 92 92 88 83 92 95 98 97 98 94 93 85 76 65 57 48 46 44 44 43 46 46 44 47 45 41
13 14 12 12 12 13 15 14 15 12 22 29 44 38 42 48 50 68 68 59 63 74 95 95 97 89 82 92 91 96 97 98 94 94 88 74 62 56 49 48 42 44 44 43 44 46 43 39 38
16 18 13 12 12 12 10 13 15 17 34 38 44 43 41 42 51 67 63 60 67 79 93 94 94 92 92 91 93 94 94 96 96 91 82 72 60 57 58 45 42 38 40 49 45 46 39 37 35
18 18 18 13 13 14 18 16 16 23 27 30 39 41 42 46 51 63 58 58 71 81 92 92 91 92 89 90 98 96 97 95 95 92 79 76 70 57 56 52 50 44 45 43 42 42 40 36 34
17 18 17 15 12 12 18 15 14 22 29 27 31 37 41 42 49 58 53 60 73 85 92 92 90 86 89 95 98 96 94 95 94 93 78 73 72 65 58 54 59 58 50 42 40 42 40 37 33
21 20 18 18 13 18 16 17 13 13 22 24 26 32 40 42 44 51 56 66 72 86 88 90 87 91 91 95 96 96 95 95 95 93 70 70 65 68 62 61 65 57 55 48 41 47 39 36 35
17 17 16 13 15 19 16 13 14 12 14 22 25 30 36 41 43 49 54 71 72 88 90 87 85 87 89 94 96 95 96 94 97 92 73 65 63 66 64 60 64 62 53 55 53 49 53 49 44
20 20 19 15 15 21 16 14 14 13 14 18 20 28 33 40 45 51 55 68 74 87 91 87 76 79 75 84 92 88 92 94 93 92 81 60 65 59 58 55 55 54 56 60 63 61 53 49 46
23 24 22 20 17 17 17 18 14 13 17 19 23 22 28 37 43 49 56 62 73 83 83 87 84 80 73 76 84 92 94 94 92 93 90 74 56 52 53 53 51 56 52 61 66 59 56 52 51
24 17 21 24 22 21 21 20 14 16 15 14 16 28 28 36 39 42 52 58 68 74 75 69 83 80 77 80 70 84 80 77 70 74 74 79 62 57 49 51 54 60 59 59 58 54 56 55 52
27 18 22 24 24 24 21 19 15 17 18 14 16 19 28 35 38 40 47 51 60 67 73 72 75 83 81 73 74 78 75 60 65 72 72 77 79 75 62 54 59 58 55 55 57 59 62 54 55
26 27 27 27 28 37 26 19 16 16 15 14 16 20 26 33 38 37 41 46 52 67 67 69 68 77 83 80 79 79 77 73 71 72 80 77 68 63 71 46 53 55 56 58 61 64 68 66 62
26 28 34 43 42 37 18 22 19 17 15 16 15 16 26 31 39 39 42 46 48 63 68 65 64 70 75 81 77 72 67 59 61 62 62 70 59 62 59 56 59 58 62 64 66 68 70 70 71
31 29 35 42 37 29 22 29 19 17 14 16 19 19 22 31 37 38 38 45 46 56 65 69 66 64 65 69 77 68 60 50 49 55 50 53 54 55 58 62 61 64 63 66 67 63 63 64 68
26 33 24 34 30 42 25 24 21 19 17 16 16 17 22 30 33 35 38 43 46 49 58 66 63 59 62 65 64 64 61 56 52 51 54 52 52 49 57 59 60 58 58 57 59 59 62 65 73
19 19 36 34 44 40 25 28 24 21 18 16 16 17 22 30 32 30 36 42 43 45 48 60 58 55 54 58 60 58 60 57 55 55 55 55 53 51 50 55 57 55 54 56 59 62 65 75 80
26 29 29 27 31 36 35 24 21 22 18 17 15 20 22 30 34 32 32 38 42 45 46 57 60 56 55 54 57 60 57 57 56 56 57 54 54 52 53 53 55 57 57 56 61 64 70 84 90
28 26 25 37 34 36 36 28 18 24 20 21 18 19 18 24 30 33 34 36 42 45 47 52 58 59 56 53 54 58 58 58 60 59 59 60 59 57 54 53 52 52 55 59 67 83 96 96 92

GFSSGP_sfc_rhum_093.txt.gz
RH
42 18 11 12 14 10 10 10 9 8 10 10 12 14 14 14 16 21 29 35 40 41 44 58 92 91 92 91 87 90 89 88 87 86 87 87 87 85 83 83 80 78 75 69 66 70 72 73 75
13 11 13 13 12 10 8 9 10 9 9 11 14 14 14 15 12 16 25 41 39 36 48 49 94 90 90 86 90 89 88 88 86 86 87 87 85 84 84 82 80 78 75 70 70 72 73 76 80
17 11 15 12 11 10 9 9 9 8 10 10 12 14 14 13 14 19 34 36 35 37 42 54 90 90 87 84 85 87 88 86 86 86 86 87 86 84 82 81 79 76 74 71 70 74 78 80 84
13 12 11 9 10 8 10 8 9 9 8 10 10 14 13 15 20 23 33 36 39 35 38 78 93 91 88 83 89 88 84 81 86 86 86 86 85 83 82 80 77 75 74 72 72 77 81 84 84
11 10 11 11 9 7 8 8 10 10 10 11 13 17 17 16 20 26 31 39 49 46 42 59 90 89 93 80 84 81 80 86 87 86 86 86 84 82 80 79 77 75 75 75 75 80 81 83 84
11 9 11 10 8 6 8 8 10 11 10 10 15 16 15 22 26 29 42 47 54 58 56 60 80 88 90 89 80 80 95 88 87 87 86 85 83 82 81 79 79 79 79 80 80 81 81 82 82
12 10 11 10 8 7 8 9 12 11 10 9 11 14 14 19 27 44 43 46 61 62 66 75 73 70 92 86 84 89 94 94 91 88 86 85 84 83 81 82 82 81 82 82 82 83 84 82 80
10 10 11 9 9 8 6 9 8 9 10 9 10 16 17 27 36 44 44 49 59 60 64 69 71 75 80 82 90 90 93 94 93 85 88 87 85 85 87 86 85 83 83 82 82 84 84 83 82
10 11 11 9 8 8 7 10 8 9 10 9 9 15 17 22 36 40 42 49 59 72 64 68 66 71 80 87 93 89 90 92 94 85 90 86 61 65 74 77 86 84 84 83 84 85 85 84 82
11 11 10 8 8 8 7 8 9 9 9 9 10 12 18 24 32 37 42 45 55 63 70 67 66 68 75 79 91 97 95 94 92 80 79 57 66 64 57 81 87 84 84 85 85 85 84 64 43
11 12 8 7 7 7 8 8 7 9 11 11 12 14 16 26 32 41 40 44 45 55 70 70 65 63 80 92 94 98 98 97 91 81 72 66 61 65 75 73 68 66 70 53 57 59 39 37 35
11 9 8 8 6 7 9 8 9 9 10 9 10 17 21 26 34 40 42 47 41 45 67 73 74 71 73 83 92 97 98 97 98 88 72 75 67 72 66 63 59 57 45 50 46 42 41 39 37
11 10 10 8 8 8 8 9 9 9 8 8 12 21 23 25 33 46 45 44 50 48 58 77 76 78 76 77 91 93 97 97 100 95 82 79 65 65 60 58 52 46 42 44 44 40 41 40 38
11 10 12 10 9 9 10 10 9 8 8 12 20 24 23 29 34 46 52 46 55 51 64 79 85 83 81 72 82 95 93 96 96 95 92 79 79 64 57 54 48 42 42 40 39 41 42 38 37
12 14 13 12 10 10 9 10 9 7 10 16 20 27 25 26 32 39 47 44 45 62 72 88 92 89 88 78 82 81 85 95 95 91 88 88 82 68 64 53 46 41 43 51 43 45 39 35 33
17 16 18 12 10 9 10 12 8 11 14 15 22 25 27 26 32 41 46 42 48 62 78 86 87 89 86 83 80 80 89 95 96 89 92 86 76 62 56 45 44 43 45 43 44 42 37 37 35
18 20 17 14 10 10 12 13 9 14 16 16 18 20 24 26 32 40 41 43 50 64 79 86 90 83 82 85 93 91 90 93 96 92 90 80 75 65 54 43 43 48 45 50 47 48 51 43 34
23 19 17 17 12 12 12 11 10 8 11 14 14 15 21 27 29 39 40 50 54 71 84 87 85 80 89 96 97 98 96 97 93 92 85 78 70 64 53 50 52 46 45 52 53 58 51 38 37
18 17 17 14 11 12 14 12 9 9 9 12 12 14 19 26 27 38 44 52 61 75 82 80 86 86 91 89 95 95 98 97 95 91 82 76 68 63 63 56 51 54 54 62 65 66 62 49 41
19 21 20 15 12 14 16 14 10 9 9 10 11 14 17 24 31 40 46 55 66 75 82 77 75 75 80 81 82 92 94 97 94 92 88 80 76 66 67 68 65 62 68 68 66 64 60 52 51
22 26 23 19 14 14 17 17 13 10 9 9 11 12 13 21 31 39 44 55 66 73 79 76 74 72 74 83 80 85 90 94 92 92 88 76 72 63 63 66 65 67 68 66 66 66 64 61 60
28 20 19 18 19 23 15 21 14 10 11 12 13 14 15 18 27 33 40 48 67 66 69 74 74 73 73 70 72 81 76 78 79 84 82 78 68 62 62 61 65 68 61 65 76 64 66 62 55
24 19 19 20 20 22 18 20 16 11 11 11 11 12 14 18 26 31 37 40 50 63 62 68 76 77 76 71 70 73 72 76 81 84 87 82 66 63 54 54 60 66 62 67 69 66 67 60 62
18 23 23 23 24 32 23 21 18 12 12 12 13 14 15 18 26 28 33 35 43 62 65 64 71 76 79 71 72 73 78 77 74 81 83 83 74 62 61 53 60 59 60 60 63 67 68 68 64
22 28 40 63 56 38 20 23 22 12 11 11 12 12 18 20 27 29 34 36 42 57 65 63 66 76 78 78 73 70 71 74 71 74 72 80 79 77 74 69 68 62 63 62 63 67 70 71 76
23 27 35 52 52 42 21 23 17 11 10 12 12 12 16 21 27 29 31 35 38 53 58 62 62 65 74 78 76 69 71 72 70 61 61 61 68 67 67 70 64 59 61 64 68 71 75 76 79
21 31 22 31 32 40 28 19 18 14 15 14 12 14 17 20 25 28 29 35 36 45 54 57 55 55 64 72 75 75 73 69 64 64 58 57 56 51 59 62 63 59 59 61 65 70 71 70 72
15 13 28 26 46 50 28 24 21 19 17 14 13 13 14 17 23 26 26 35 35 39 45 56 51 49 55 57 68 66 71 69 61 61 63 58 56 54 53 57 59 61 63 63 66 66 64 66 69
19 19 20 21 25 35 40 27 17 19 17 16 14 15 16 17 22 24 25 30 35 37 41 51 50 45 48 55 58 62 65 63 62 59 54 58 62 58 56 58 62 61 61 61 63 64 63 64 66
27 20 19 33 30 26 30 28 18 20 18 20 19 15 16 19 22 22 23 28 33 38 38 45 49 47 45 48 54 58 58 61 61 58 57 58 58 58 56 54 52 54 55 57 60 62 59 62 65

GFSSGP_sfc_rhum_096.txt.gz
RH
45 27 16 14 18 15 14 10 8 9 8 10 10 12 12 11 14 27 34 41 41 44 70 72 91 92 91 90 88 89 89 89 87 88 88 88 87 86 84 83 81 80 77 74 74 75 75 76 80
18 13 13 15 21 16 12 9 10 8 9 10 10 12 13 14 12 20 42 40 40 36 53 67 92 93 93 92 89 89 89 89 88 88 88 88 87 85 84 83 81 78 76 72 73 74 76 77 80
33 16 14 19 18 15 11 8 9 8 8 9 10 9 14 14 14 20 36 34 34 38 41 69 92 92 93 90 91 88 87 89 88 88 87 87 86 85 84 83 80 77 75 71 72 76 79 81 82
16 13 14 18 13 9 8 8 8 9 8 9 10 12 10 13 15 23 32 33 42 41 46 91 92 91 88 90 90 82 90 80 88 88 86 86 86 85 84 83 80 78 77 73 74 78 81 84 83
13 14 18 16 12 9 6 8 8 10 9 10 10 16 17 13 19 27 33 39 51 54 59 83 92 90 90 87 87 89 88 83 77 87 82 84 84 85 84 82 80 79 78 79 79 81 82 83 80
14 13 16 14 10 7 6 8 8 10 9 9 10 14 15 19 23 34 44 51 61 66 66 86 88 87 89 89 92 92 88 89 95 92 86 84 86 84 83 82 80 79 82 84 85 85 84 84 81
15 15 16 13 12 9 7 8 11 10 10 9 9 14 16 24 37 45 43 52 64 70 72 76 80 80 88 92 86 88 90 85 84 93 98 86 86 84 82 82 82 82 84 86 86 87 85 83 80
12 14 16 14 11 10 7 6 8 8 9 8 8 14 19 36 41 45 48 56 63 65 71 74 75 81 91 91 86 86 90 87 83 83 93 88 89 85 85 85 84 85 85 84 84 87 86 84 79
10 16 17 13 10 9 7 8 8 7 8 9 9 12 12 23 35 40 46 58 67 78 74 75 78 80 87 91 90 88 89 86 84 91 94 92 78 79 84 80 86 86 85 85 85 86 86 82 76
14 18 15 10 8 8 8 7 8 8 8 9 10 15 13 16 29 37 43 54 60 72 77 76 76 81 85 80 93 95 95 94 95 95 95 85 79 80 76 84 86 86 86 86 86 86 80 67 66
13 16 13 10 9 8 8 8 7 8 9 10 11 12 12 20 28 36 41 49 51 74 80 79 79 85 89 87 97 100 99 98 98 94 96 91 81 82 88 85 84 85 84 78 79 74 54 56 57
14 11 10 10 8 8 9 7 9 8 9 8 10 11 16 20 28 32 44 44 47 67 76 79 75 79 86 96 98 98 98 97 99 97 95 90 82 88 86 79 79 72 67 68 64 61 58 58 53
13 11 9 9 9 10 9 10 10 9 7 7 8 12 18 21 24 40 42 48 57 57 77 84 81 84 86 90 96 98 98 98 98 96 96 86 77 88 81 74 67 60 62 59 59 64 53 60 54
12 11 11 10 10 11 12 12 10 9 7 8 10 15 19 22 25 38 51 49 58 55 72 84 83 82 83 92 92 97 99 98 100 98 90 81 76 82 78 72 63 60 59 55 59 58 60 59 59
15 16 14 13 12 12 11 13 12 9 9 9 11 14 21 20 27 33 48 46 46 63 77 82 92 91 88 87 89 94 97 97 99 99 97 83 76 73 71 73 63 60 58 61 67 62 63 60 52
17 18 22 15 13 12 12 17 11 9 8 9 15 17 21 23 24 31 43 43 48 63 79 90 89 93 91 85 88 89 92 96 96 98 98 91 82 72 67 73 61 60 60 58 63 67 63 62 61
22 25 23 19 12 12 12 14 10 10 12 14 14 16 20 24 26 35 44 42 50 69 76 87 89 90 90 88 88 90 93 96 94 95 96 94 85 74 66 72 73 59 62 70 63 69 66 65 62
27 24 22 22 15 13 14 13 11 9 13 16 15 15 16 23 26 38 40 49 58 71 79 88 91 89 91 95 97 94 93 94 96 93 93 90 85 73 68 75 73 72 66 75 74 70 68 64 61
20 21 21 16 13 14 15 15 12 11 10 12 12 15 15 21 26 42 44 53 62 77 86 86 89 93 93 96 98 99 98 98 98 93 87 89 80 73 68 69 68 70 70 73 76 74 66 68 62
18 21 22 19 15 17 16 15 14 13 12 10 10 12 15 20 38 44 50 58 67 78 84 83 82 85 88 89 95 96 96 97 96 95 91 87 79 76 66 66 68 70 71 75 75 73 75 70 67
20 24 25 26 20 18 18 19 17 14 12 11 10 11 12 19 37 44 52 59 68 77 85 80 77 84 87 89 93 95 95 96 95 95 93 86 79 77 72 74 71 78 74 76 80 75 75 75 77
20 18 21 25 30 31 20 27 20 15 13 11 11 12 16 15 34 42 48 58 70 76 76 73 73 76 84 80 82 85 91 93 89 86 92 93 88 86 77 79 81 82 80 82 79 73 76 76 78
19 16 19 26 35 32 28 28 22 15 14 12 14 15 16 17 33 40 43 51 60 70 76 73 73 76 80 81 79 78 79 79 80 85 87 91 89 86 76 81 88 88 83 88 88 80 82 80 84
14 18 21 24 29 43 35 33 24 18 16 12 11 13 19 18 31 35 39 45 57 70 77 75 75 76 80 77 80 76 76 80 80 80 80 82 81 80 78 75 83 81 79 87 86 83 80 84 84
16 24 40 50 55 64 31 31 26 19 14 12 15 16 21 21 32 35 39 42 53 70 67 77 77 76 80 77 80 76 76 80 79 79 75 77 76 75 72 68 71 80 81 77 77 76 83 86 89
18 24 40 49 61 45 39 38 23 16 14 11 13 16 19 23 32 33 38 41 50 68 69 67 73 74 78 78 79 77 76 74 75 75 74 77 72 67 64 63 60 77 74 78 76 88 89 90 93
21 29 23 35 35 72 49 36 25 16 16 14 14 14 21 25 31 32 37 41 47 61 70 71 71 70 73 78 77 76 76 73 72 74 71 75 73 69 71 67 68 79 72 71 83 87 87 89 87
18 17 32 32 49 51 36 48 36 25 20 17 16 16 20 24 29 31 33 42 43 55 60 69 64 67 72 73 75 73 74 75 72 71 69 71 70 70 72 74 70 70 70 77 79 79 85 84 85
16 18 19 20 29 40 51 44 38 35 27 24 21 19 21 26 27 30 31 38 39 49 55 64 61 58 66 72 75 76 74 73 71 71 70 67 66 65 66 67 67 67 68 68 74 76 78 81 83
26 19 20 31 32 30 36 35 34 31 26 23 20 18 22 21 24 28 30 38 40 46 49 59 60 58 61 65 73 74 76 75 74 71 70 68 69 65 60 59 64 64 63 69 78 80 77 80 80

GFSSGP_sfc_rhum_099.txt.gz
RH
70 60 47 30 36 36 33 23 15 14 19 18 15 16 19 18 18 37 53 49 71 80 82 87 94 90 89 88 88 91 91 89 90 91 90 89 87 85 84 82 81 81 79 73 72 75 77 80 84
39 27 29 29 38 48 33 18 15 15 16 14 13 17 20 19 43 57 60 50 60 78 82 87 95 92 90 89 89 89 89 89 90 90 90 88 87 86 85 84 84 82 77 72 74 75 78 81 83
45 30 30 35 44 40 32 14 14 14 12 13 14 15 18 22 33 50 52 53 46 62 75 82 94 95 93 91 89 89 90 89 90 90 89 88 87 86 85 84 83 80 77 73 71 76 78 83 85
35 34 26 35 34 24 20 14 13 12 12 12 13 23 19 17 23 47 44 47 48 62 79 91 93 94 94 92 90 90 90 90 90 89 88 88 86 86 85 84 81 79 77 74 70 77 81 83 84
26 31 36 43 30 19 15 12 12 13 14 18 16 21 22 29 41 43 50 54 64 82 93 93 94 92 92 93 91 84 81 91 84 84 86 84 88 85 84 83 81 79 77 76 79 82 83 84 82
32 28 37 36 24 15 12 12 12 14 14 14 16 22 27 37 41 57 60 72 75 76 94 95 92 92 92 90 91 90 91 87 92 94 95 89 84 84 85 84 83 81 83 84 85 83 83 83 81
34 34 34 28 22 17 12 15 16 14 15 14 17 21 36 55 55 59 66 75 76 74 85 96 93 88 90 94 92 92 93 90 92 92 93 95 95 88 85 84 85 86 87 87 86 84 84 83 79
26 27 29 25 22 20 12 15 12 12 13 12 12 19 23 60 59 59 70 78 78 78 86 87 90 90 95 97 95 94 93 93 92 90 89 90 95 94 85 87 88 88 88 87 85 87 85 81 77
23 30 26 25 21 17 11 12 12 11 12 12 12 15 27 52 56 63 71 82 88 84 89 84 84 80 98 96 92 92 92 92 89 88 88 89 92 95 85 84 88 88 88 88 87 86 84 80 74
23 33 25 18 16 15 13 12 11 14 13 13 16 26 46 50 52 58 67 79 92 92 92 88 85 89 95 91 95 96 96 93 90 90 92 92 92 91 84 88 88 88 88 88 87 85 82 72 72
23 24 19 17 15 14 14 13 10 13 14 14 17 18 23 46 51 54 57 66 76 86 93 88 85 92 95 97 99 100 100 97 94 95 95 93 97 94 90 90 88 89 88 87 85 78 69 67 70
23 18 16 15 14 13 13 14 14 14 13 12 12 16 21 27 42 51 54 61 87 89 93 91 89 93 95 98 99 99 99 99 98 97 95 94 97 94 86 87 90 89 87 87 80 78 67 63 62
20 18 15 13 13 13 12 16 16 14 12 11 10 11 24 26 35 52 58 62 76 91 94 93 92 92 94 97 99 99 99 98 98 98 94 98 94 90 83 88 86 80 78 74 76 76 58 61 60
18 18 16 17 17 16 15 18 19 14 12 11 13 14 23 28 35 66 62 69 67 88 96 94 91 94 94 97 99 99 99 98 97 97 95 96 92 87 82 81 73 72 67 61 74 66 72 67 65
21 25 22 19 19 18 17 18 17 14 12 13 12 15 25 27 40 63 64 65 70 92 94 96 96 93 93 94 97 99 99 98 99 95 92 97 91 80 77 70 70 65 60 63 74 71 71 70 63
29 29 32 23 20 17 19 23 16 14 14 14 14 18 24 29 42 63 59 67 82 92 95 96 91 94 91 92 97 99 99 99 100 96 93 98 88 78 71 62 71 65 62 64 72 69 73 72 68
38 40 35 27 19 20 22 22 15 13 15 18 19 20 24 33 51 55 55 75 86 94 97 97 95 95 93 91 96 96 98 99 99 97 96 92 84 75 70 65 74 65 68 76 63 72 64 74 72
46 38 31 30 21 19 21 20 16 12 15 19 21 21 26 34 56 55 63 76 90 94 95 92 96 95 94 96 96 98 99 98 99 98 96 95 86 73 69 76 84 73 69 76 71 71 74 73 68
30 31 31 25 20 20 23 21 17 15 19 21 24 23 22 32 54 58 71 82 91 95 93 93 94 96 98 98 99 99 98 98 97 98 94 98 92 79 76 79 80 87 70 67 65 77 65 73 71
27 30 28 22 20 20 26 28 22 16 17 18 18 16 22 56 56 63 76 86 92 93 89 90 91 94 92 92 96 97 96 96 93 94 94 93 92 81 70 76 74 81 74 70 71 70 76 74 70
18 24 27 26 22 22 32 34 25 18 17 16 14 16 26 56 60 67 72 88 94 89 89 87 86 92 91 93 96 98 98 99 98 97 98 95 87 78 67 72 79 83 79 72 72 69 66 72 76
22 16 18 21 28 46 32 52 35 23 21 17 15 15 22 55 55 65 72 88 91 83 82 82 84 89 90 93 92 93 96 96 95 95 94 95 88 84 75 74 73 77 78 80 71 71 77 76 74
19 20 19 20 29 43 44 47 42 27 26 19 18 17 18 51 56 67 70 80 85 81 79 79 84 88 88 84 87 88 92 93 94 94 94 94 92 89 81 79 80 82 81 86 85 82 80 82 84
18 24 25 24 38 55 46 44 48 36 26 18 16 15 19 49 53 62 65 75 84 86 82 81 83 87 87 83 81 82 89 92 95 94 92 91 91 91 87 81 85 84 85 91 92 88 85 84 90
22 27 57 64 65 60 34 40 39 29 23 20 18 20 25 47 54 57 70 75 85 90 81 82 81 88 86 85 84 79 86 85 87 88 88 90 92 92 90 79 85 84 85 84 88 91 89 86 92
28 28 61 66 77 67 36 60 46 26 20 18 15 22 39 47 50 52 66 72 82 86 85 76 80 86 85 87 83 76 80 82 80 78 78 78 83 82 78 74 72 78 83 83 88 92 89 88 92
30 35 26 40 48 77 64 47 42 34 27 26 18 24 38 43 48 50 56 66 78 80 86 81 76 76 83 84 83 77 79 82 79 71 69 68 69 69 76 71 70 78 80 84 88 92 89 89 93
24 24 36 38 53 64 50 57 64 46 35 34 29 22 32 41 43 47 50 63 76 76 76 82 79 70 75 80 82 77 78 78 79 77 75 72 71 66 70 71 68 73 85 82 83 86 88 89 92
31 29 31 33 45 61 64 51 50 48 42 41 30 22 33 40 39 45 46 51 70 73 76 80 81 79 79 70 80 78 77 79 76 79 76 75 77 72 70 70 68 70 79 85 88 86 83 89 91
22 25 25 41 39 47 46 42 33 40 38 35 38 37 21 24 38 41 45 47 63 69 75 77 77 79 80 77 74 76 78 83 83 80 76 74 75 78 76 72 69 70 71 71 80 81 78 89 91

GFSSGP_sfc_rhum_102.txt.gz
RH
76 62 46 32 35 40 41 28 22 17 23 19 17 17 18 19 21 30 51 69 83 89 92 90 93 91 91 91 92 91 89 91 90 90 89 88 86 85 84 85 84 83 80 75 76 81 81 81 87
44 34 32 35 42 51 40 27 20 18 17 18 17 18 19 39 52 58 59 75 80 84 91 92 93 91 91 92 93 92 90 91 90 90 89 88 87 85 85 84 83 82 79 70 73 79 80 84 86
39 34 37 37 51 48 40 22 18 16 17 14 16 17 19 33 56 56 58 70 82 83 86 91 93 92 91 91 92 92 91 91 92 91 89 88 87 86 86 87 85 78 74 68 77 76 82 86 86
37 36 35 38 42 36 31 24 18 14 17 15 15 21 23 36 53 53 55 57 80 84 83 92 96 93 92 91 92 92 92 92 92 91 90 88 87 87 87 87 83 81 81 78 78 82 86 89 87
31 36 41 49 40 29 22 17 14 14 15 19 17 22 26 55 49 52 56 64 82 95 93 93 96 96 93 91 91 92 93 93 93 89 86 84 86 84 86 86 84 82 80 79 81 85 87 87 85
34 35 43 44 34 23 19 15 14 16 16 16 20 24 47 51 48 59 69 77 86 95 96 95 94 95 96 94 92 92 88 88 87 88 92 88 85 93 82 86 84 82 81 78 85 86 84 83 82
38 41 44 38 29 24 20 16 18 16 16 15 15 25 49 51 58 70 77 81 86 95 97 98 97 94 93 93 97 94 91 90 92 93 93 90 92 91 93 84 85 85 85 86 87 85 84 82 80
32 35 47 34 29 27 18 13 15 15 14 15 14 24 57 56 66 80 82 83 84 92 96 97 96 95 96 97 96 95 93 91 94 92 93 92 91 94 96 86 89 88 88 89 88 87 83 80 80
28 38 42 32 26 22 18 16 14 13 14 15 13 19 21 54 68 82 91 91 91 92 94 96 96 96 97 98 96 95 95 94 95 90 91 89 84 93 93 84 91 90 90 89 88 86 84 82 82
31 38 32 25 21 21 18 22 14 15 13 14 18 55 57 60 65 76 87 93 93 94 95 94 93 96 99 92 97 97 97 96 96 95 93 92 92 90 84 91 92 91 90 90 88 86 83 74 69
30 30 24 21 20 20 19 19 15 16 16 15 15 53 64 64 66 71 76 84 86 86 95 94 93 98 99 98 98 98 99 98 98 97 96 93 94 96 92 97 96 93 91 94 92 83 67 68 68
34 24 22 20 18 19 19 16 16 17 14 13 14 18 59 61 64 65 71 78 91 94 94 93 93 98 98 99 99 98 98 98 98 97 92 95 97 97 94 93 93 93 96 97 93 79 71 71 67
31 26 21 19 18 17 16 17 17 16 15 15 14 14 45 52 55 61 61 82 95 95 94 95 96 97 98 99 99 99 98 97 96 96 92 92 96 90 92 86 88 93 96 87 84 76 70 68 68
27 26 23 20 20 20 19 21 24 17 17 15 17 16 20 31 44 68 72 86 94 93 96 96 96 96 97 99 98 98 98 98 98 97 94 91 94 90 85 88 91 93 85 79 80 73 70 68 66
26 29 28 27 26 22 21 24 22 17 17 18 16 16 17 31 60 59 65 77 92 95 96 96 96 95 96 97 99 98 98 98 98 98 96 93 88 89 86 87 85 81 74 77 82 71 71 68 64
34 37 42 28 25 22 27 29 21 18 18 18 17 15 19 33 57 66 66 77 93 97 97 97 96 95 96 97 99 98 99 98 96 98 96 93 89 83 80 76 75 72 65 70 76 70 74 73 70
45 42 42 36 26 25 27 28 22 19 18 18 17 16 21 38 64 68 69 88 94 94 97 97 97 96 95 95 98 98 98 99 99 96 97 96 90 80 70 68 67 68 61 73 72 73 67 73 75
46 47 39 41 30 26 28 27 23 20 19 17 21 22 26 57 67 64 77 87 94 96 96 97 98 97 94 97 98 98 99 99 99 97 94 98 86 73 63 69 70 61 65 81 73 75 76 75 73
36 40 42 40 26 26 27 28 28 27 25 22 22 26 26 55 64 72 83 94 97 97 97 97 98 97 98 99 99 100 99 99 99 97 95 94 90 72 63 68 68 71 69 77 74 72 70 82 76
36 40 39 31 25 24 25 25 31 30 26 22 20 22 27 68 72 81 91 95 96 97 96 98 97 95 94 94 98 97 98 98 98 100 94 94 94 80 65 69 64 80 70 79 72 70 80 78 78
23 33 35 34 26 22 26 31 35 29 28 24 19 21 37 66 74 85 90 96 97 97 97 96 98 94 94 93 96 99 99 99 99 100 98 96 92 85 69 77 72 79 70 72 65 64 64 63 76
21 17 20 22 27 35 37 48 35 33 31 26 22 20 41 61 67 79 88 96 96 96 95 96 97 97 96 93 97 98 97 97 96 97 98 97 92 90 78 78 76 76 71 72 64 60 67 66 66
21 19 23 23 28 40 42 54 48 35 35 29 24 20 33 62 67 76 86 89 94 96 95 95 96 97 94 91 91 96 96 97 95 98 97 95 89 89 90 84 87 84 81 85 77 72 76 70 80
17 22 23 26 38 51 52 54 50 45 32 28 22 20 26 57 65 69 82 89 95 94 92 95 97 96 91 90 89 92 96 97 98 98 98 95 92 91 92 92 92 90 92 90 92 89 82 84 82
27 35 53 60 66 60 39 47 37 34 27 26 25 22 22 36 67 79 91 94 94 93 90 94 96 94 91 91 86 89 92 90 92 93 94 97 95 94 94 92 94 91 89 92 92 94 89 87 91
29 34 62 57 78 62 38 55 51 40 34 29 26 25 47 62 69 75 85 90 91 90 88 91 94 91 89 87 92 85 84 88 88 87 88 89 91 93 92 84 79 83 83 90 92 94 95 91 93
27 40 34 49 64 72 59 53 43 42 43 38 27 28 53 63 68 73 79 85 90 91 89 91 91 87 86 88 84 83 84 87 85 83 83 84 89 92 94 90 83 81 82 86 93 92 92 93 94
28 30 42 48 53 60 58 60 59 55 50 41 37 39 46 56 61 69 74 84 85 87 85 87 85 82 84 86 83 80 82 85 85 81 81 82 89 91 93 88 80 79 80 81 84 85 89 92 92
33 32 41 42 55 50 68 55 55 56 51 48 50 42 41 43 61 59 68 77 81 84 85 85 83 77 80 84 84 81 80 83 86 81 79 74 77 80 81 76 76 77 89 84 84 86 87 90 88
51 38 42 63 60 56 63 52 43 48 46 56 55 44 40 33 34 55 55 75 80 83 84 85 81 78 76 76 85 82 81 81 84 84 81 78 79 80 78 76 72 73 78 85 90 86 82 88 91

GFSSGP_sfc_rhum_105.txt.gz
RH
77 61 44 33 36 42 45 32 26 22 25 20 19 19 19 21 20 29 49 78 87 95 96 93 94 93 92 93 92 91 89 89 90 90 90 88 89 88 88 88 86 84 80 77 78 81 82 81 87
49 40 33 38 43 49 36 33 26 21 20 21 21 20 24 33 54 61 65 76 85 92 96 93 94 93 92 92 93 91 89 88 88 89 90 88 88 88 88 87 86 80 71 78 78 80 81 85 90
37 36 41 40 55 48 36 28 22 16 18 20 20 18 28 36 53 61 59 79 85 92 95 92 94 93 92 93 94 93 90 90 90 90 89 88 87 86 87 87 86 80 71 69 78 81 84 89 89
39 41 39 42 48 41 34 28 27 17 16 17 17 23 26 47 50 57 64 82 88 91 94 96 95 94 93 93 94 93 93 93 92 90 88 87 86 86 87 87 84 79 74 76 79 82 88 89 88
33 39 46 54 46 34 28 23 21 18 17 20 19 23 29 50 57 62 68 80 89 95 95 96 96 94 94 93 93 93 94 94 92 88 85 82 84 85 83 85 84 81 77 80 84 87 88 89 87
35 39 50 53 40 30 24 20 20 20 17 16 22 26 35 53 62 64 72 84 90 95 97 97 97 96 95 94 94 96 95 94 90 90 92 90 87 89 81 85 84 83 80 81 86 89 88 85 84
40 44 48 47 35 29 23 19 20 19 18 16 19 35 51 61 66 76 81 90 94 96 98 98 98 97 98 97 96 96 96 95 87 90 91 91 93 91 86 84 83 82 82 87 88 88 86 81 81
36 40 59 41 34 30 22 19 16 17 15 14 17 42 53 57 75 85 85 91 95 97 98 98 98 98 98 98 98 97 94 96 95 93 90 87 91 92 82 89 86 81 83 88 88 87 84 82 82
34 46 50 38 31 26 22 21 21 15 15 15 16 32 33 65 83 89 91 91 94 97 98 98 98 98 97 98 98 97 96 95 96 94 93 93 93 93 92 89 85 82 88 90 89 87 84 84 86
38 47 39 31 25 25 23 27 21 19 18 15 16 58 66 72 80 83 93 93 94 95 97 98 98 98 98 99 99 99 98 97 95 93 94 95 94 92 87 88 90 80 91 90 88 86 84 83 84
36 37 28 26 24 25 25 26 23 21 19 18 15 30 73 76 80 77 81 86 86 91 96 97 97 98 99 99 100 99 99 99 97 95 96 94 95 94 95 95 95 91 90 92 89 86 72 78 78
37 30 25 25 23 24 24 23 23 20 17 16 16 31 71 74 76 76 75 88 91 94 95 95 95 98 98 99 99 99 99 99 99 98 95 97 98 98 98 95 92 95 93 98 93 88 75 76 77
37 33 28 26 25 24 22 23 21 19 16 16 18 20 70 66 67 68 68 80 92 95 96 96 96 99 99 98 98 99 98 98 98 97 96 96 96 95 95 91 95 91 98 93 90 77 76 75 73
32 30 29 28 28 26 24 22 25 20 20 18 20 20 50 64 64 70 73 78 91 94 96 96 98 98 99 99 98 98 98 97 98 98 96 94 94 92 93 90 89 94 90 90 83 72 70 75 77
31 36 32 32 29 29 26 30 26 20 21 20 20 20 20 42 58 62 59 65 82 94 95 97 97 97 98 99 96 98 99 98 98 96 95 92 92 90 89 88 90 92 88 90 85 76 76 80 73
36 40 46 32 28 25 26 29 24 22 23 22 22 20 19 23 36 49 55 68 94 96 96 97 97 98 98 99 97 97 97 98 98 98 96 95 92 89 94 88 90 89 83 81 74 73 77 75 77
45 46 45 38 28 29 28 34 26 24 26 23 24 22 19 23 41 62 68 87 96 95 96 98 98 98 98 98 99 99 98 99 98 98 98 95 93 94 90 88 85 79 77 78 70 84 74 76 82
44 52 44 42 33 30 33 31 29 25 26 27 26 23 25 32 40 68 86 96 97 97 96 97 98 97 98 98 99 99 99 99 98 98 98 96 95 93 88 80 79 68 73 81 72 72 85 80 80
33 44 46 43 31 32 34 32 28 26 26 33 29 26 26 34 82 79 94 97 98 98 98 98 99 98 99 99 99 99 99 99 100 99 96 96 93 86 81 72 70 64 67 74 74 76 77 85 80
42 43 45 40 32 33 33 32 25 28 30 30 27 29 26 71 86 87 97 98 97 97 97 99 98 98 98 97 98 97 98 99 99 99 96 98 91 79 74 68 63 65 72 86 74 71 85 85 78
26 36 43 42 33 32 34 31 26 25 32 29 30 28 26 58 80 84 94 97 97 98 98 97 96 98 97 91 96 99 99 99 100 99 98 96 91 77 74 64 61 66 75 79 71 69 77 71 87
24 21 23 28 37 43 33 38 34 34 28 28 29 29 30 55 65 76 87 98 98 98 97 97 94 98 95 94 96 93 95 98 98 99 99 98 92 87 82 66 67 70 75 73 70 65 72 71 72
24 21 24 25 31 36 27 55 40 41 39 32 25 29 30 53 66 75 84 90 95 98 98 98 98 98 98 94 95 96 98 94 98 98 99 98 96 93 93 86 83 84 80 82 72 68 72 66 70
23 27 30 35 37 49 33 42 38 40 35 35 28 27 26 43 68 70 82 92 98 97 98 98 95 93 99 95 93 95 97 98 98 98 98 98 96 96 94 89 89 89 89 87 86 78 72 70 73
30 39 54 66 74 53 38 52 35 36 30 36 40 35 29 37 73 76 94 97 97 98 97 97 92 90 97 84 93 94 95 95 95 96 96 98 98 97 95 91 92 89 88 90 94 92 89 86 83
34 37 60 56 68 60 44 58 43 35 43 42 40 39 41 44 51 72 89 90 95 96 96 94 92 89 96 93 91 91 90 92 92 90 90 91 94 95 94 92 93 95 93 92 96 97 98 94 93
28 43 28 43 67 72 61 55 40 48 46 47 50 46 45 70 76 81 88 90 93 94 96 92 92 96 94 94 91 91 90 90 91 89 90 88 90 95 96 95 95 96 95 94 94 94 94 98 96
26 27 40 55 53 59 59 63 52 49 50 53 53 54 54 45 71 78 91 92 91 89 92 94 94 95 95 93 90 92 91 87 88 90 89 90 94 95 95 96 95 96 96 96 96 98 97 96 96
34 37 43 38 55 50 60 58 48 47 61 60 50 59 59 62 68 74 81 88 93 94 94 95 96 95 95 94 89 90 86 87 93 87 87 88 92 92 93 91 93 93 94 96 95 95 94 94 90
56 34 32 59 60 64 61 55 63 61 66 67 68 66 62 55 60 80 78 90 95 90 89 95 94 93 93 93 91 89 84 86 90 88 84 87 92 91 90 91 91 86 82 81 82 83 84 89 90

GFSSGP_sfc_rhum_108.txt.gz
RH
82 61 43 33 36 44 49 34 30 25 27 21 21 21 20 21 22 28 44 84 86 94 96 96 90 94 94 93 92 93 92 91 90 90 90 89 88 88 88 87 85 83 81 78 80 82 81 83 86
60 42 33 40 43 47 34 35 30 24 20 23 22 25 28 27 51 60 64 81 89 95 97 97 96 94 93 92 90 91 92 90 90 90 89 89 89 89 88 87 86 83 78 76 76 78 81 86 89
40 38 38 43 58 45 36 31 24 24 18 22 22 21 27 30 55 60 60 78 90 96 96 95 96 95 93 93 93 91 90 91 90 90 89 89 89 88 87 87 84 80 80 78 77 80 85 90 91
42 42 40 43 49 44 36 32 30 23 19 19 18 22 26 40 48 55 59 84 90 96 97 96 96 96 94 94 93 92 93 93 91 88 90 88 89 85 84 85 82 78 80 78 78 84 89 91 90
36 43 48 58 49 38 32 30 27 25 20 20 20 22 26 42 56 60 74 85 91 97 98 97 96 95 94 93 92 93 93 94 92 83 76 79 79 80 83 85 83 80 76 80 85 89 91 91 88
37 42 54 52 44 35 27 23 25 24 23 20 23 26 25 58 68 72 84 94 93 97 97 98 96 95 95 95 93 94 95 94 88 86 88 88 84 83 80 84 82 80 81 85 90 91 91 88 88
38 45 54 57 42 34 26 23 24 22 22 20 25 24 36 56 68 78 86 94 94 96 97 98 98 96 96 97 97 96 96 93 90 89 87 86 85 87 86 81 79 80 83 86 90 89 88 87 88
41 42 63 47 38 30 24 23 21 21 22 17 27 32 32 54 83 86 88 92 96 98 98 98 99 99 99 90 98 98 96 94 91 91 90 89 86 84 84 83 82 81 82 86 89 87 86 86 87
40 47 53 42 36 28 24 26 24 21 19 18 17 28 39 70 87 89 91 93 97 99 99 99 99 99 99 95 99 98 98 92 92 91 92 92 91 89 85 83 82 81 87 88 89 85 84 87 87
40 54 43 35 29 26 26 32 28 23 23 22 19 40 71 87 87 86 91 91 96 98 99 99 99 99 99 99 99 99 98 95 93 92 92 93 93 94 88 86 87 84 89 89 88 84 84 88 92
44 41 36 30 27 28 30 29 28 27 25 24 21 20 76 86 88 81 80 84 87 93 98 99 98 98 99 97 98 99 99 98 96 92 94 92 95 95 96 95 91 91 89 87 88 81 88 93 89
40 36 29 32 28 32 28 28 26 26 21 19 20 22 66 80 86 80 79 87 91 93 93 97 98 98 96 97 97 98 98 99 98 95 93 96 98 97 95 95 92 91 89 96 90 76 90 92 87
43 39 30 29 27 29 27 29 28 26 21 20 20 21 51 74 74 74 71 79 91 93 95 96 97 97 96 98 99 99 99 99 97 98 95 94 96 95 94 89 95 92 91 93 88 79 82 85 85
34 36 29 30 32 32 31 30 34 24 24 21 23 24 25 70 68 69 81 82 92 87 94 96 97 98 94 98 98 99 99 98 99 98 96 94 95 94 92 88 92 98 91 89 81 73 80 83 82
36 40 37 38 34 33 30 35 32 23 24 24 22 23 24 37 58 69 63 66 72 87 94 96 96 98 98 97 98 98 98 98 99 98 96 94 93 92 90 91 93 93 86 89 79 79 78 84 80
40 42 51 38 33 30 27 34 30 24 26 25 25 25 25 25 32 54 55 58 72 95 96 96 96 98 99 99 96 98 98 98 97 97 97 96 93 92 92 92 94 96 89 82 76 76 83 86 84
47 52 51 42 32 29 29 33 30 29 28 27 26 28 27 26 26 31 48 59 90 94 96 96 98 98 98 99 97 98 98 98 98 98 97 96 96 94 92 87 90 91 89 82 76 78 82 86 92
51 55 49 48 39 35 38 35 33 28 31 28 28 26 30 28 26 35 65 90 96 96 96 96 97 98 99 99 99 99 99 99 98 98 98 97 95 95 95 92 90 88 88 84 76 77 88 85 87
34 44 47 49 37 39 40 37 36 30 30 30 29 32 30 30 45 88 96 99 99 98 98 98 98 99 98 98 99 99 98 99 99 98 95 97 96 93 95 93 87 88 84 79 74 77 83 94 88
41 40 39 45 38 37 36 35 30 31 28 27 27 26 30 33 58 91 98 99 97 94 97 98 98 98 96 87 96 96 98 98 98 99 98 95 98 90 96 90 83 80 81 77 75 73 90 91 84
34 40 43 45 42 37 44 33 23 22 28 26 28 31 33 32 34 80 98 98 98 97 96 97 97 92 95 97 96 99 98 99 100 100 99 98 96 92 86 88 81 71 73 77 72 72 77 80 90
29 29 32 37 40 45 38 39 33 29 26 33 31 31 34 34 37 64 93 98 95 92 95 97 94 89 98 97 98 98 98 97 98 98 99 98 93 88 76 74 69 70 73 73 68 70 81 72 81
27 23 27 30 40 41 36 37 34 34 37 26 28 34 36 34 37 53 86 90 88 92 98 93 89 94 97 97 92 93 92 94 98 99 99 98 96 90 78 72 71 78 73 76 66 76 77 69 78
24 29 30 36 41 52 36 38 42 34 27 36 46 46 53 51 35 59 84 94 92 94 92 92 91 95 98 97 95 92 90 97 99 99 99 98 96 94 84 79 78 86 86 83 78 74 75 71 70
33 41 60 67 63 53 34 43 33 34 32 46 53 55 54 69 51 83 93 98 94 96 94 90 93 93 92 98 94 96 96 97 98 96 98 98 98 96 91 86 89 92 92 88 85 84 85 82 80
44 42 62 58 74 59 47 52 44 33 41 45 54 60 58 63 69 82 89 95 88 89 90 91 91 90 93 90 93 94 94 95 95 91 93 95 95 95 93 89 85 92 91 93 91 91 95 92 92
37 42 36 45 65 65 59 58 44 49 52 55 62 65 64 66 70 79 91 95 86 87 88 87 85 82 88 88 91 94 93 94 95 93 90 94 95 97 95 93 90 85 87 93 93 95 98 96 96
32 32 47 54 53 55 57 70 54 62 57 61 68 71 68 65 69 82 88 97 87 92 87 85 84 81 83 85 81 89 91 93 93 94 92 94 96 96 96 96 93 92 90 91 93 94 93 97 99
36 42 42 46 59 54 59 58 53 48 63 78 80 70 70 67 74 88 87 93 92 92 88 86 89 87 89 89 96 97 96 91 93 93 94 94 96 97 95 94 94 94 92 90 92 92 93 92 94
52 43 37 58 54 66 60 52 74 76 73 73 73 75 70 63 67 74 92 95 96 97 92 90 92 92 90 90 93 97 97 96 96 93 92 94 94 94 96 97 94 94 95 94 93 95 94 93 94

GFSSGP_sfc_rhum_111.txt.gz
RH
64 37 25 22 22 26 23 20 20 18 17 15 15 16 16 14 27 21 32 54 62 65 72 76 93 82 89 92 93 93 92 90 90 90 91 90 89 88 88 88 85 82 81 78 80 82 82 82 86
47 27 23 26 23 21 15 22 21 17 16 17 16 17 17 14 28 34 34 57 60 64 72 71 88 89 92 93 94 93 91 91 91 91 90 89 89 89 88 87 86 83 80 78 78 80 80 85 86
31 27 22 24 29 17 16 21 17 17 17 15 14 14 16 16 34 33 32 53 63 66 70 75 90 92 92 94 93 93 92 92 89 86 90 88 87 87 86 86 85 81 80 80 76 81 85 88 89
28 26 25 23 22 26 22 18 18 20 16 14 13 15 16 20 33 37 39 54 65 69 73 89 96 93 92 93 94 92 90 92 91 91 88 83 86 82 84 85 85 78 81 80 80 85 90 92 91
24 26 25 28 24 24 23 22 22 19 17 16 13 16 18 26 38 44 48 62 67 75 76 83 96 96 92 88 93 93 93 94 89 80 82 77 78 82 76 80 80 83 84 82 85 91 92 92 90
25 26 26 18 20 25 21 20 18 18 17 16 15 17 16 32 42 50 62 68 75 81 83 84 92 96 94 90 84 93 93 94 92 88 88 89 92 82 81 83 82 84 85 86 91 92 91 90 90
24 28 24 28 26 24 20 18 18 16 15 15 15 16 19 29 45 62 67 72 74 79 84 85 84 86 97 95 91 95 94 93 91 89 86 84 85 84 84 83 81 84 86 88 92 93 90 90 90
22 24 32 29 18 16 17 16 14 14 15 12 18 19 19 29 61 65 71 73 74 78 81 82 84 86 88 88 96 95 94 94 92 91 91 88 86 86 85 83 82 85 86 87 92 92 92 92 90
28 26 26 18 25 16 17 18 17 16 14 14 13 16 22 42 65 63 68 77 81 85 81 82 89 88 90 90 91 97 96 93 92 90 91 88 75 71 68 82 84 83 86 90 92 91 93 90 89
27 27 22 21 20 18 18 19 18 16 17 16 16 17 34 55 62 57 61 65 76 82 92 83 84 92 91 84 94 93 94 90 88 84 80 79 80 73 66 77 86 85 89 90 89 89 90 79 63
30 26 25 22 20 19 19 19 18 18 17 18 17 17 18 42 54 61 55 56 61 68 80 87 85 88 93 90 97 98 99 97 92 87 83 81 80 78 80 89 87 90 89 78 80 76 71 65 60
34 31 24 19 22 22 22 20 19 19 16 15 17 18 18 22 37 51 56 54 60 68 73 81 83 88 92 93 97 97 98 98 98 94 89 86 81 80 78 86 80 87 88 87 70 74 76 68 63
35 30 26 24 24 23 22 22 22 21 17 18 19 19 18 19 32 49 50 51 61 68 72 80 83 86 93 95 95 96 97 98 97 96 93 92 82 84 83 74 91 82 93 87 87 64 74 67 64
24 27 24 23 22 25 24 23 23 20 20 20 21 19 17 20 22 34 52 56 64 63 71 76 84 88 87 91 93 95 98 95 93 97 95 92 90 89 77 74 77 93 90 90 76 63 71 62 62
29 31 28 28 26 25 26 28 28 21 21 21 20 19 18 18 18 30 34 43 47 62 66 76 82 90 88 90 92 92 97 97 98 96 94 91 92 92 81 80 93 83 80 83 74 66 64 62 60
26 29 35 29 30 27 24 27 23 20 22 20 23 21 21 19 19 18 25 29 36 53 69 74 80 92 90 90 89 93 95 98 98 98 97 93 90 89 87 77 91 88 81 76 67 64 63 66 67
29 26 35 33 28 26 27 26 21 20 22 22 22 20 20 20 19 20 20 22 32 55 69 79 82 86 92 92 93 95 92 95 97 97 97 95 93 93 89 76 84 83 86 73 68 65 65 68 66
28 31 37 31 26 29 28 29 24 22 23 23 22 21 21 20 18 19 33 40 42 64 73 77 82 84 92 97 95 96 93 92 93 96 95 95 96 95 95 87 86 90 87 81 64 70 64 64 64
22 31 32 31 29 30 30 29 25 24 24 25 22 22 19 19 18 26 58 68 70 76 78 80 84 88 90 96 97 94 94 97 97 96 96 94 95 98 97 98 96 91 86 78 71 69 74 73 65
25 25 25 23 27 28 27 27 22 22 23 22 21 19 18 19 19 24 50 81 87 84 80 84 81 87 85 83 88 80 93 97 95 94 91 90 95 94 96 98 96 93 86 83 75 70 67 69 69
25 27 26 24 25 29 32 26 17 14 19 18 20 19 19 23 25 25 34 68 86 85 87 86 84 87 83 77 81 90 91 95 97 97 96 96 94 93 94 95 93 94 86 81 76 70 67 70 69
26 23 24 26 32 29 25 20 18 16 15 23 22 30 38 41 38 30 28 56 78 85 83 85 86 85 85 83 81 86 86 84 92 93 94 98 96 96 95 93 90 93 84 78 75 66 64 69 71
30 24 26 27 30 30 23 26 19 23 23 21 41 45 48 53 51 38 30 42 64 79 86 87 81 84 86 85 85 87 85 88 91 95 96 98 96 97 95 93 93 89 88 77 72 72 69 65 64
23 23 25 28 28 32 24 23 21 19 20 42 47 49 51 51 56 58 49 58 67 79 88 85 79 84 87 86 86 86 82 83 91 96 97 98 98 97 96 93 91 87 87 78 75 72 69 68 64
24 28 35 42 43 38 29 29 21 24 33 45 52 53 55 52 57 61 64 72 75 87 87 84 81 91 86 86 82 78 80 82 83 88 97 98 98 97 96 93 93 88 80 74 75 74 74 69 68
30 30 37 37 43 33 31 33 25 23 26 47 53 53 52 54 62 66 67 73 77 85 86 86 84 89 87 83 80 76 78 81 84 90 88 94 95 94 94 90 88 82 78 76 78 80 79 76 83
41 39 28 39 50 48 39 34 33 39 51 53 57 55 58 62 72 70 70 76 75 80 86 87 86 84 87 82 79 84 88 87 94 89 88 92 93 94 94 95 92 85 83 79 79 81 85 83 86
32 31 46 42 44 47 39 45 31 53 60 57 62 60 59 66 73 76 75 78 76 80 84 87 81 80 82 81 83 82 89 88 91 91 91 94 96 94 94 94 91 91 91 85 82 85 84 83 87
23 36 36 34 41 35 36 34 42 44 53 61 64 59 60 65 70 77 83 85 85 86 88 87 83 81 84 83 82 87 87 87 92 93 93 92 96 94 94 90 90 88 91 93 92 91 92 85 84
25 24 32 40 44 40 35 34 59 61 60 59 67 59 56 52 61 66 77 88 92 90 88 90 89 89 83 85 80 83 85 87 88 94 93 94 96 96 97 93 92 90 90 88 88 93 92 87 90

GFSSGP_sfc_rhum_114.txt.gz
RH
49 20 13 14 13 10 8 9 11 12 12 11 11 15 13 11 13 14 20 29 29 32 42 65 92 83 89 91 92 93 92 91 91 91 91 91 90 89 88 86 86 84 83 80 79 80 80 82 87
24 16 13 12 11 8 6 8 12 10 12 13 12 13 12 11 12 16 25 30 30 31 42 49 93 86 88 93 94 92 91 91 91 91 91 90 89 88 86 86 86 84 82 81 78 80 81 86 89
19 15 12 9 8 8 6 10 10 11 12 11 12 10 10 10 13 13 14 29 29 32 37 51 90 89 91 94 94 92 92 92 92 91 88 84 85 81 85 81 86 85 83 81 78 79 86 90 91
14 13 11 11 9 8 8 9 11 12 11 10 10 12 10 12 15 17 18 26 32 35 37 79 91 91 92 93 93 90 91 93 92 92 87 87 85 80 80 80 85 83 82 79 82 86 90 92 92
13 12 10 10 8 6 9 12 14 13 12 12 10 12 12 14 18 23 23 29 35 40 44 71 93 91 91 92 92 91 92 93 92 88 87 79 90 89 94 86 79 82 82 84 87 90 92 93 91
11 11 11 8 7 8 9 8 10 11 11 11 11 11 11 16 20 26 29 35 42 52 57 66 90 92 89 91 93 93 92 91 90 86 86 87 84 81 86 81 80 87 87 90 92 93 92 93 92
14 12 10 8 8 9 9 8 11 11 11 10 10 12 11 16 27 40 36 40 48 56 61 66 71 79 95 90 91 94 94 93 93 89 89 86 87 88 84 79 86 88 89 92 93 93 94 92 92
13 12 13 9 10 8 7 9 9 10 10 10 10 12 14 20 32 38 43 45 48 53 59 62 64 71 76 73 91 94 94 94 93 92 90 92 88 89 85 87 87 88 90 92 94 93 94 93 91
14 15 12 11 9 8 10 10 10 10 10 10 10 12 12 17 28 32 43 50 52 55 56 58 61 65 73 78 76 93 95 94 94 88 91 89 65 70 70 69 89 88 90 93 94 93 94 93 92
16 16 13 8 9 9 9 9 9 11 11 11 11 12 11 14 20 24 33 42 52 55 58 54 61 64 76 75 78 76 72 69 66 66 68 59 65 57 50 62 90 88 90 94 93 94 94 82 62
17 19 13 11 10 9 9 9 8 10 10 11 12 11 11 12 16 22 22 28 35 43 53 56 60 67 82 78 78 71 83 74 74 70 70 66 65 57 50 51 61 80 89 68 79 81 60 64 62
22 16 16 13 12 14 13 10 12 10 9 8 10 11 12 14 14 16 19 21 26 36 50 57 57 64 86 81 75 77 95 92 94 83 79 80 71 68 54 49 51 65 92 81 74 73 66 61 55
22 19 15 16 15 14 14 14 14 12 9 10 10 12 12 12 12 16 16 19 24 34 45 55 58 63 79 88 84 78 90 94 95 92 85 83 72 69 52 51 50 60 83 94 86 76 64 63 54
16 17 17 15 15 14 16 16 14 13 12 13 13 13 11 12 12 13 15 22 28 32 43 50 58 61 72 79 80 83 80 88 95 94 85 80 80 80 66 71 61 81 84 92 82 85 63 59 52
17 20 17 16 16 16 15 19 17 14 13 14 13 13 13 12 11 12 14 16 20 27 38 48 58 60 69 68 72 74 75 77 95 93 88 81 82 83 74 73 72 62 82 83 84 83 68 53 49
20 19 23 16 17 17 16 21 15 15 15 16 17 16 15 13 12 11 12 13 14 17 28 43 48 62 73 68 69 68 74 79 85 93 91 89 86 80 82 80 79 79 84 77 84 76 60 51 48
16 19 16 16 18 18 21 20 14 14 14 15 15 14 14 13 12 12 12 12 14 18 24 43 54 64 74 69 71 76 77 82 86 94 91 84 87 87 82 80 83 82 84 76 75 78 58 52 47
16 16 16 17 12 15 19 19 16 15 16 16 16 15 15 14 13 12 12 14 20 26 31 44 54 62 78 81 87 83 77 83 88 90 94 90 91 87 90 91 88 86 85 72 72 73 58 51 50
13 13 13 11 12 20 19 17 15 14 14 17 17 17 16 15 13 12 12 18 32 37 40 48 56 62 84 87 93 89 84 90 81 77 90 94 93 93 92 94 94 90 85 73 73 69 62 63 54
14 15 14 11 10 16 16 14 11 11 13 15 15 15 13 12 11 11 13 24 42 41 47 48 51 59 80 80 72 71 84 84 82 84 89 89 93 94 95 95 96 93 83 82 77 69 63 62 56
15 16 14 14 12 12 15 16 13 11 10 10 11 11 10 11 12 15 17 21 34 46 52 49 50 57 72 67 71 64 66 78 79 83 89 90 92 93 94 96 95 94 91 86 78 70 63 64 62
18 11 14 16 17 18 13 16 10 12 12 10 11 13 15 19 22 22 20 19 29 47 54 56 53 58 64 63 64 64 60 62 67 68 74 89 78 83 92 92 96 96 93 89 78 72 67 60 61
17 13 17 20 20 19 16 18 12 10 10 13 13 20 28 30 32 32 27 21 23 46 62 73 68 68 67 62 58 58 56 56 66 64 71 77 84 91 90 94 95 95 94 89 84 78 71 64 54
15 20 19 19 19 26 18 18 12 10 14 13 29 32 36 35 35 34 36 31 31 55 72 81 74 74 75 69 61 61 64 71 73 71 78 84 90 95 96 96 97 95 92 92 87 83 73 64 59
15 23 22 26 27 23 12 17 15 11 18 21 33 39 38 37 41 39 39 39 41 56 73 83 72 77 84 80 70 65 69 75 72 72 67 84 97 98 98 97 97 97 94 92 87 85 82 70 64
17 20 22 23 22 20 17 23 16 11 14 32 37 38 39 42 46 44 47 49 53 66 69 81 74 77 80 75 70 70 71 64 64 60 64 87 94 95 94 96 96 95 94 92 89 86 87 76 70
17 22 15 16 16 24 16 18 13 16 14 35 38 40 45 48 51 52 53 57 60 68 73 81 80 73 77 66 66 67 69 66 64 65 77 91 90 94 96 96 96 95 94 94 93 93 94 87 77
13 13 21 16 24 22 12 17 18 24 30 37 41 43 48 52 57 62 61 65 66 69 73 79 81 74 73 65 67 64 64 63 65 74 87 93 92 92 94 94 94 94 93 92 91 89 83 79 78
20 26 20 15 20 19 22 18 17 28 33 40 42 43 47 52 54 60 71 77 77 79 79 82 85 81 78 71 71 67 69 64 72 78 82 92 93 93 92 92 94 91 86 85 85 78 78 75 74
14 22 22 27 24 21 20 18 33 30 33 40 44 42 43 46 49 52 60 76 83 88 85 85 86 86 79 77 72 75 72 68 77 88 88 92 96 93 92 94 91 91 79 77 75 72 69 71 75

GFSSGP_sfc_rhum_117.txt.gz
RH
46 22 12 9 12 8 7 6 5 8 9 8 8 11 10 9 12 17 13 19 19 23 41 63 91 92 90 89 90 91 92 92 91 91 92 91 89 88 91 89 88 85 83 80 80 80 81 83 88
19 13 10 10 12 8 7 4 7 7 9 10 9 13 10 10 8 13 18 21 19 23 39 49 91 88 92 91 91 92 91 92 91 91 91 89 87 87 84 86 86 84 83 82 80 80 82 87 90
30 10 10 9 9 8 5 4 6 7 10 10 10 9 9 9 8 11 14 18 18 22 30 55 90 90 93 93 92 93 93 92 92 92 90 84 84 79 92 90 84 83 85 82 80 81 86 91 91
15 10 10 12 10 6 5 4 6 8 9 8 8 11 8 9 10 10 13 15 18 23 26 84 91 91 92 93 92 91 91 92 92 92 88 83 79 90 94 88 86 81 82 82 82 87 91 93 93
10 9 11 9 7 4 4 5 8 10 9 10 8 11 10 10 10 12 13 17 23 26 36 67 92 92 92 92 92 90 88 93 92 92 89 82 89 89 89 88 91 97 81 84 88 92 92 93 92
11 9 11 9 7 5 4 5 8 10 8 9 9 10 10 9 12 17 17 23 30 36 46 64 86 92 93 93 93 92 93 94 94 92 89 87 86 80 79 86 89 90 86 90 93 93 94 93 91
12 10 10 8 8 6 5 6 6 8 8 8 8 10 10 12 19 26 21 25 33 43 53 64 68 75 94 95 94 96 94 93 93 92 91 90 91 89 80 82 91 90 86 93 93 94 93 92 92
11 11 12 9 10 8 5 5 6 6 7 7 8 11 11 20 20 23 25 30 35 45 51 58 61 69 72 73 94 95 96 96 94 93 93 92 91 88 86 89 84 84 91 94 94 94 93 93 92
11 16 15 11 10 8 5 7 6 5 6 8 8 10 11 14 17 21 30 35 40 46 49 51 56 63 68 68 72 93 95 96 95 91 94 93 63 60 67 71 90 91 93 95 96 95 94 93 91
15 18 15 10 8 8 6 7 7 8 8 8 9 10 10 10 14 17 24 33 40 45 50 47 53 59 63 63 69 71 65 65 64 65 71 71 63 58 56 69 91 92 94 96 96 96 95 86 63
16 19 14 11 9 8 8 8 6 7 9 8 9 10 10 10 11 15 15 20 30 36 43 46 53 57 61 74 68 64 63 56 60 63 63 67 61 75 57 70 61 82 87 72 86 95 72 62 58
17 16 15 13 11 10 11 10 10 8 7 6 6 8 9 10 12 11 14 13 16 26 40 46 47 56 68 62 61 54 62 55 56 62 72 72 69 72 68 48 48 68 81 75 77 64 65 64 62
15 14 14 13 13 13 12 12 13 11 8 8 7 7 9 10 10 12 11 12 14 19 30 44 48 56 70 66 55 54 64 61 61 60 73 75 75 66 58 57 63 70 86 84 89 65 70 66 61
15 15 14 14 15 14 16 15 13 12 10 10 10 9 9 9 10 10 12 12 15 18 28 38 49 52 60 77 72 64 65 65 75 72 67 73 72 79 64 70 68 81 79 84 96 90 66 72 54
13 17 16 15 14 15 14 17 16 13 12 12 11 11 10 8 8 9 10 11 11 17 23 35 48 52 57 76 75 69 57 61 75 75 71 73 77 76 73 71 69 67 81 89 95 98 93 73 55
13 16 22 15 14 14 15 21 14 12 12 12 13 12 11 10 9 8 9 10 10 12 21 28 34 52 59 63 62 56 60 64 73 80 70 74 76 76 76 72 78 71 82 90 94 92 92 91 66
10 12 13 14 10 13 16 20 13 11 12 13 13 13 12 12 11 10 9 10 10 13 15 22 39 48 60 60 57 59 66 64 69 73 77 75 75 75 75 76 76 76 84 83 83 88 86 85 71
12 12 11 12 10 10 15 16 14 12 12 15 13 12 12 12 11 11 11 12 10 14 17 22 33 48 60 61 61 57 62 76 74 72 70 75 75 73 78 76 76 82 86 86 87 86 86 71 56
9 10 11 12 8 10 12 12 11 11 11 13 14 13 14 14 12 12 13 13 12 18 23 28 33 48 55 60 70 77 74 80 76 72 72 73 79 77 75 81 79 90 92 89 86 86 83 79 54
6 9 12 8 7 9 9 12 13 12 10 10 12 12 13 14 13 13 13 14 18 20 30 30 34 43 52 69 76 66 62 67 63 64 71 76 78 77 79 82 88 95 95 92 92 89 84 82 62
10 9 10 10 8 8 10 11 10 9 9 8 8 8 10 12 12 11 11 14 16 26 33 34 35 40 56 75 69 58 60 75 72 78 73 74 77 89 90 91 90 92 96 94 91 86 79 84 72
13 8 9 8 11 12 10 14 9 8 8 8 8 9 10 9 9 9 11 14 18 24 32 35 36 39 63 76 64 60 61 71 65 63 69 74 72 80 90 92 93 95 94 93 93 84 80 76 68
10 9 11 11 12 14 11 9 9 8 9 9 9 9 10 13 17 18 17 16 16 20 36 43 39 41 64 67 58 58 54 55 52 52 60 71 77 79 87 93 96 97 94 94 91 92 84 77 66
13 12 12 15 15 23 16 12 9 8 10 10 12 13 18 22 23 22 22 27 21 38 45 54 47 44 59 65 58 60 57 52 49 54 58 74 75 74 86 88 95 95 95 96 93 91 88 77 70
16 19 21 29 27 26 12 12 12 8 7 9 17 24 27 27 28 28 28 29 26 38 54 66 63 54 66 69 63 57 56 54 55 56 57 68 76 88 87 92 97 96 93 95 94 92 91 85 74
18 19 23 31 27 20 9 12 9 7 7 12 19 25 28 29 34 34 36 38 39 46 54 71 70 74 79 70 66 58 56 53 54 57 52 58 73 76 84 94 96 96 94 94 94 94 92 92 89
18 20 14 22 17 20 11 9 9 8 10 21 26 27 32 35 37 39 44 48 50 54 61 71 74 79 82 78 71 61 58 56 56 57 60 61 66 78 82 95 96 96 95 95 95 95 93 93 92
16 12 21 20 30 25 12 13 12 13 14 22 25 30 36 41 46 51 52 58 59 61 67 74 76 79 77 74 68 59 59 56 57 67 70 69 81 84 92 96 96 97 97 95 95 95 93 93 92
16 17 14 16 19 23 21 14 10 11 13 18 24 32 38 41 44 52 62 68 76 73 71 76 79 81 80 74 69 60 55 58 62 70 69 74 85 87 90 93 93 95 96 96 96 96 95 92 92
35 16 14 21 22 16 16 14 16 13 18 20 36 33 37 41 43 46 56 66 75 85 81 79 84 88 83 75 72 66 59 61 66 69 71 78 90 90 92 90 92 94 95 96 95 96 95 93 94

GFSSGP_sfc_rhum_120.txt.gz
RH
48 31 20 16 15 14 12 8 5 5 7 7 7 7 10 9 16 25 20 26 35 45 68 73 94 93 91 90 89 90 92 93 92 93 92 92 91 89 89 91 90 86 84 82 82 83 82 86 89
22 16 16 12 16 14 10 6 5 5 8 8 8 11 10 10 11 17 23 25 32 44 55 67 93 92 92 92 91 92 92 93 93 92 92 91 88 85 84 83 88 85 84 82 80 81 84 89 91
36 22 14 13 12 14 12 6 5 8 9 10 10 9 10 9 8 14 20 22 26 40 44 72 91 92 93 92 92 94 94 94 93 93 92 89 86 86 90 94 92 92 79 82 80 82 88 92 92
22 20 12 14 14 9 7 6 4 7 9 8 9 11 8 10 10 17 17 18 25 32 52 90 92 92 93 93 93 93 93 84 92 92 90 85 84 85 88 84 91 92 96 77 82 88 92 93 92
20 12 14 12 10 8 6 4 5 7 8 10 8 11 11 11 10 15 18 20 31 48 71 81 92 93 93 92 92 90 91 89 92 91 88 89 86 87 81 83 87 76 91 94 80 92 93 93 91
18 13 16 14 11 8 6 5 5 8 9 8 9 10 11 10 13 18 23 35 47 73 73 80 89 93 93 93 92 91 90 85 93 92 90 89 90 88 84 85 84 78 85 92 85 94 93 92 90
17 15 15 12 11 8 6 5 6 6 8 8 7 10 12 12 20 24 25 37 48 65 75 80 81 85 94 94 94 95 96 93 93 94 90 91 90 88 89 89 85 82 88 90 95 95 94 92 90
15 16 17 14 12 10 7 5 5 6 6 6 6 11 14 26 28 28 28 41 46 58 72 75 77 84 89 90 96 96 95 95 94 95 91 89 87 91 88 91 90 90 89 93 96 96 93 93 91
14 20 20 17 14 11 7 7 5 5 6 5 8 10 14 18 20 25 33 46 53 60 66 70 73 78 84 85 87 96 96 96 95 95 93 95 78 84 82 82 86 88 91 95 94 96 96 95 93
19 22 20 14 13 12 8 7 6 7 6 6 9 10 9 13 19 24 34 45 51 60 65 64 71 76 80 70 86 86 84 86 86 84 93 86 81 76 62 76 88 87 96 95 93 96 97 93 94
18 22 17 15 14 13 12 10 7 7 8 8 9 10 10 12 15 22 26 37 44 51 59 61 69 75 78 76 80 80 79 80 80 81 87 84 79 84 89 92 92 94 96 94 93 96 94 86 90
20 17 16 15 14 14 14 11 10 9 9 7 8 8 9 12 14 15 20 20 34 41 54 59 63 74 78 76 77 77 75 76 77 78 83 85 86 85 87 92 88 88 90 90 90 97 92 83 81
16 14 13 13 14 14 14 15 15 13 10 9 8 8 8 12 14 20 16 18 23 38 50 57 62 70 73 79 76 77 76 76 75 78 81 83 88 85 87 80 82 74 90 92 91 93 87 84 83
11 12 13 13 14 14 16 17 15 14 12 12 12 11 9 9 11 14 18 19 24 26 52 57 60 68 74 75 76 75 79 73 80 80 81 84 84 88 80 86 88 93 93 94 94 91 87 86 76
11 14 13 12 14 16 14 18 18 14 14 14 13 12 12 10 9 10 14 15 16 24 36 57 63 65 76 79 76 74 78 78 82 86 84 84 87 88 82 88 87 91 93 92 96 96 96 89 79
13 11 14 9 11 13 15 22 16 14 14 14 15 14 13 12 10 9 11 11 13 16 30 47 50 64 71 81 79 75 74 75 80 82 82 84 85 85 88 88 87 89 93 94 95 97 98 98 90
11 14 10 8 7 7 13 19 15 13 14 15 14 13 14 13 12 11 9 10 11 20 26 41 52 63 70 82 81 80 76 75 77 83 83 84 85 85 89 90 90 88 94 92 91 96 93 98 95
12 12 12 12 9 10 11 13 12 14 14 15 14 14 15 14 13 13 13 13 12 23 28 42 50 61 70 73 77 74 74 75 75 82 81 85 85 85 88 91 89 89 94 93 88 93 93 87 90
11 12 11 9 8 10 13 13 11 10 13 14 14 16 16 16 13 13 17 20 22 28 36 39 52 60 67 69 75 74 74 80 86 84 84 83 85 84 86 90 88 89 93 90 89 92 94 93 80
9 10 12 9 7 9 10 10 11 10 10 12 13 13 15 15 15 17 20 25 31 30 37 42 39 54 59 65 69 69 71 84 83 86 82 83 82 84 85 89 90 89 93 92 91 92 94 89 83
14 14 13 12 8 7 10 14 11 9 9 9 11 10 9 13 15 17 19 26 34 35 48 42 42 46 56 66 74 77 80 81 83 84 84 83 80 84 82 87 88 93 95 96 94 93 91 88 86
20 13 11 10 12 12 9 17 12 9 9 9 9 10 11 10 10 15 16 19 29 40 50 48 47 47 56 74 78 78 78 78 76 81 80 84 82 84 86 88 89 93 94 95 94 93 94 88 86
23 17 15 12 13 15 11 12 11 9 9 8 8 10 11 11 12 12 12 14 24 33 51 52 50 51 69 77 78 76 74 74 76 76 82 82 85 85 88 90 91 94 94 94 94 94 92 90 80
29 25 19 19 18 22 16 14 12 10 9 7 8 10 11 15 22 24 26 29 28 53 59 62 53 50 78 79 76 77 74 75 72 74 79 83 84 86 89 92 91 92 94 93 94 94 94 94 87
34 44 36 39 34 27 15 16 16 11 8 8 12 22 27 30 32 31 28 31 36 52 62 66 61 57 76 76 79 74 71 72 69 69 71 81 86 90 90 92 94 94 95 95 93 93 93 94 92
71 48 40 48 38 24 15 19 14 10 8 7 19 27 28 32 37 38 41 43 45 56 65 72 72 70 73 73 76 78 69 70 67 69 69 77 84 90 91 95 95 95 94 93 96 95 92 93 95
55 38 24 31 28 32 18 13 11 9 8 8 26 28 32 38 41 46 51 56 62 62 65 73 75 73 80 82 83 80 78 72 71 69 72 76 78 87 92 93 95 97 96 94 94 96 96 93 94
48 33 41 28 38 38 23 20 14 10 9 11 28 32 42 46 52 57 61 68 65 63 70 77 78 85 84 82 85 81 77 73 70 73 74 76 83 86 91 95 95 97 97 96 96 95 94 96 96
84 78 38 28 23 32 39 28 13 17 12 23 28 36 48 49 56 59 64 68 79 79 80 77 82 85 89 86 86 83 77 74 71 73 79 82 88 88 90 89 96 98 98 98 98 95 95 96 94
37 63 59 30 29 24 26 25 13 22 21 23 23 32 45 51 54 57 65 73 82 85 86 90 91 91 91 87 87 84 81 75 76 78 81 84 87 86 92 94 95 96 97 97 97 98 97 96 97

GFSSGP_sfc_rhum_123.txt.gz
RH
74 66 53 33 37 33 32 20 13 11 9 14 12 14 16 20 27 46 46 53 68 82 88 88 93 92 92 92 92 92 94 94 92 93 92 94 91 88 85 87 88 85 82 81 79 82 82 84 90
48 33 35 34 30 35 26 16 14 10 12 15 12 14 15 25 25 38 47 55 66 75 84 92 94 93 93 93 92 93 94 94 94 93 92 90 88 87 89 89 92 89 85 79 81 82 84 88 91
50 34 46 32 30 30 26 15 12 12 13 14 14 12 15 16 26 30 40 54 58 66 77 89 94 94 93 93 94 95 95 94 94 94 92 88 87 86 86 89 91 91 87 90 79 83 88 92 92
35 42 37 27 27 20 15 11 9 11 14 13 15 16 13 16 24 27 37 47 54 61 78 93 94 94 94 94 95 95 94 87 92 92 90 86 85 84 85 88 88 84 91 94 75 87 92 93 92
37 42 32 31 23 16 11 9 8 8 13 16 13 22 17 20 22 23 32 43 58 83 86 91 94 94 94 94 94 94 87 83 89 90 91 88 86 87 85 88 82 79 83 90 87 88 93 92 91
43 33 37 33 22 14 11 10 9 9 12 13 13 19 18 21 21 24 34 58 77 87 89 91 92 94 94 94 94 94 89 82 88 93 91 89 89 86 85 90 86 84 85 85 90 90 93 92 90
49 40 35 28 21 16 12 9 10 9 14 13 12 14 18 29 25 34 49 75 83 87 90 95 96 94 94 95 94 94 91 84 93 94 92 91 93 88 87 89 81 82 88 89 91 95 96 92 92
30 32 32 28 24 21 13 12 9 9 9 8 11 15 20 46 34 43 57 77 84 88 91 94 96 97 98 98 96 96 93 91 96 94 94 94 92 91 89 92 86 83 85 88 95 95 96 94 97
27 38 35 32 25 19 14 14 12 8 10 10 9 17 32 32 31 43 59 74 85 88 88 93 96 97 97 97 95 96 95 96 96 95 93 94 89 92 92 93 91 90 89 91 96 96 96 97 96
31 40 39 25 21 19 16 18 17 16 10 9 13 20 26 27 32 36 56 71 80 89 92 86 94 96 96 88 96 98 96 99 98 95 92 89 90 94 83 86 93 91 89 96 95 97 96 95 96
27 31 26 23 20 19 19 19 16 18 13 12 11 16 22 27 30 39 48 61 68 75 83 86 87 93 95 93 98 99 99 99 98 98 95 91 88 93 89 96 93 97 97 96 92 98 98 97 96
23 19 20 20 19 19 19 18 18 19 18 13 13 14 14 18 28 32 42 47 62 70 73 80 84 87 94 94 95 96 96 96 97 98 96 95 95 87 97 98 98 97 99 96 91 96 98 96 93
16 17 17 16 15 16 16 17 19 18 16 15 14 14 15 12 18 25 28 41 50 63 68 72 76 82 88 90 97 93 93 91 92 95 95 92 95 90 95 97 97 94 98 98 99 99 98 93 88
16 14 13 13 13 13 16 18 21 17 18 16 16 16 16 15 15 20 21 20 37 51 66 66 72 80 86 86 90 96 86 94 90 88 92 91 91 93 89 96 94 96 95 98 98 98 96 93 80
15 16 15 14 18 15 13 17 19 16 16 18 16 15 14 15 15 14 17 18 19 43 59 65 72 77 83 86 87 88 91 85 96 89 94 92 91 93 93 94 92 93 95 96 97 96 95 95 91
21 17 23 13 12 11 15 21 16 15 15 15 15 16 15 14 14 14 14 16 18 23 57 62 61 76 83 82 88 84 96 96 97 96 94 93 91 91 93 93 94 95 97 96 96 96 95 95 95
24 24 20 15 11 10 11 11 9 15 15 16 16 15 15 15 14 13 12 14 15 20 53 62 62 76 87 86 85 90 93 96 97 96 97 94 92 92 92 93 95 95 98 97 94 98 90 93 97
28 22 16 16 11 11 11 11 10 11 12 15 16 16 15 15 15 13 13 12 11 16 39 60 64 72 88 92 90 88 96 96 96 96 93 96 93 93 93 96 96 95 97 98 96 95 96 91 93
20 20 18 14 11 11 10 9 8 9 11 12 15 15 18 20 18 13 13 14 17 20 33 60 68 73 88 94 97 95 92 89 97 94 89 94 95 94 94 96 96 96 94 94 95 97 96 98 93
23 24 22 16 12 11 11 10 8 8 9 10 11 10 13 19 18 18 22 24 25 25 42 54 63 74 76 85 86 88 86 88 92 91 88 86 92 92 95 95 95 95 96 97 96 93 95 96 91
27 28 26 25 18 15 13 13 10 9 10 9 8 8 10 14 13 17 20 26 31 32 48 52 58 71 72 76 84 94 95 96 97 91 90 89 90 93 94 95 95 96 94 95 95 94 91 92 92
27 25 27 29 35 31 17 20 12 10 11 10 9 8 9 9 9 12 17 23 30 35 50 43 53 66 71 76 80 83 84 95 92 87 86 88 86 94 90 95 94 96 95 94 93 93 92 89 92
36 32 34 37 44 35 25 21 13 10 10 10 9 8 8 8 8 10 16 20 22 35 54 46 49 64 72 79 80 84 85 83 86 86 88 88 87 88 93 94 93 95 94 93 93 95 93 90 85
29 43 43 40 44 50 30 28 17 13 9 9 8 8 8 7 8 12 22 29 60 59 70 66 57 75 82 85 84 82 83 87 84 88 87 92 93 90 89 95 96 95 95 95 95 94 93 93 87
36 69 86 71 58 50 25 28 21 15 10 8 10 10 33 28 33 45 54 60 77 86 86 82 83 95 94 91 88 86 85 90 85 85 90 93 97 95 96 95 94 96 95 94 93 93 93 93 92
45 50 76 94 65 48 24 32 19 13 10 9 9 33 40 51 60 68 71 72 75 85 88 88 86 89 91 93 90 90 89 89 82 78 86 89 91 88 94 95 93 93 94 94 93 95 95 93 93
89 92 63 90 66 61 36 26 17 10 11 11 12 34 49 65 69 76 76 75 77 85 92 90 88 91 88 87 92 87 90 85 82 76 78 85 89 93 93 94 94 91 92 94 94 97 95 95 94
56 69 88 64 66 58 43 36 28 20 17 12 21 46 73 80 84 83 84 86 88 92 91 91 90 94 92 87 88 86 83 79 79 81 82 84 91 95 98 98 97 98 96 96 96 96 95 95 96
63 84 91 91 58 53 54 39 24 22 20 29 30 61 80 86 86 84 87 85 86 86 89 95 94 91 94 92 90 91 85 82 81 80 84 89 91 94 96 95 97 98 98 98 98 96 96 97 97
46 52 80 95 90 70 42 33 15 16 44 49 44 79 86 86 81 81 80 82 86 88 88 90 93 94 95 93 92 92 91 86 83 84 88 91 92 94 94 94 95 95 97 98 98 98 97 97 94

GFSSGP_sfc_rhum_126.txt.gz
RH
79 70 51 35 32 35 36 26 19 15 14 11 14 16 17 24 31 45 56 53 77 89 92 90 93 92 92 92 94 93 94 92 91 93 94 91 91 91 89 88 86 84 80 78 80 80 82 84 86
55 42 38 38 37 37 28 25 19 16 13 16 15 21 21 35 42 54 53 70 76 88 93 92 93 92 92 92 92 95 94 94 93 93 92 90 89 90 87 86 88 84 86 77 76 80 82 86 88
51 38 52 41 40 36 28 20 16 12 10 15 14 17 22 31 43 41 47 69 76 85 90 92 94 93 93 93 93 94 96 96 94 93 92 90 89 88 86 88 88 82 86 81 74 81 87 89 90
40 45 51 36 34 26 22 17 14 13 10 12 16 21 18 28 38 43 53 64 72 82 89 96 95 94 94 94 94 96 96 96 95 94 92 90 88 88 87 89 85 83 81 82 81 86 91 92 91
44 47 56 46 32 22 16 14 13 12 11 15 14 19 23 26 34 43 55 55 72 88 94 94 95 94 94 94 95 95 94 95 94 94 90 88 89 89 89 88 85 84 79 82 84 87 91 92 91
52 44 49 47 32 20 17 15 13 13 11 13 16 20 22 30 43 48 50 58 77 88 95 94 94 94 95 96 96 93 89 92 93 94 90 90 90 91 90 87 85 85 77 87 88 90 90 92 91
67 66 63 41 35 28 20 17 16 13 14 12 16 15 28 32 38 49 53 74 82 84 94 97 96 95 96 97 96 93 89 91 95 94 92 92 92 91 91 89 84 86 88 90 90 93 93 94 96
46 48 67 50 37 32 20 18 16 17 18 10 12 16 33 30 38 58 80 90 93 90 94 97 98 97 97 97 96 94 90 93 96 95 94 95 91 90 92 88 87 89 89 89 89 94 94 94 95
31 44 56 44 35 29 20 21 19 18 19 17 10 17 24 40 61 74 91 96 96 93 95 97 98 98 98 98 96 95 91 95 97 96 96 96 95 93 92 89 86 87 89 88 95 96 95 96 94
31 51 43 32 28 27 23 23 21 21 20 17 16 34 38 41 57 70 78 91 94 95 97 96 97 98 98 94 98 98 95 97 98 97 96 97 97 96 88 93 89 86 86 91 96 96 97 95 95
33 34 29 27 25 24 24 24 21 23 23 22 20 16 24 41 47 60 67 77 82 85 89 94 96 97 97 96 98 98 99 98 98 97 97 97 93 97 98 99 97 97 93 99 99 99 99 98 96
23 20 24 24 23 26 25 21 19 21 19 19 20 16 14 19 36 51 61 65 72 88 87 91 93 97 97 98 99 92 93 96 96 95 96 94 96 98 97 98 98 99 98 93 95 98 99 98 95
15 19 16 16 15 17 16 17 21 18 19 19 18 19 17 16 15 26 42 57 61 75 83 88 90 92 96 97 98 98 98 96 92 94 96 93 94 96 95 98 98 98 97 95 94 95 99 98 97
17 18 16 16 15 16 17 16 20 13 17 18 18 19 21 21 18 17 27 50 64 64 76 85 89 89 91 95 96 96 97 97 98 93 94 95 94 95 90 98 98 98 98 99 99 99 98 98 96
24 24 20 12 15 18 19 17 20 14 13 15 17 16 15 19 19 18 21 28 54 63 69 80 86 87 90 90 93 93 92 95 96 98 97 95 94 94 94 98 98 97 98 97 98 98 98 97 94
30 27 26 12 14 13 17 16 11 11 16 17 15 15 14 13 16 19 17 18 25 50 66 72 72 87 90 86 89 90 88 92 95 94 97 95 93 92 96 97 96 97 98 96 98 98 98 97 96
30 31 25 19 14 14 17 16 11 10 11 15 16 12 13 14 14 15 18 18 17 31 55 70 72 84 88 87 86 88 92 89 96 94 95 94 92 93 95 96 96 97 97 98 97 98 95 97 98
35 32 25 25 19 18 16 15 11 9 9 10 13 14 14 14 14 13 14 17 15 22 53 66 70 76 85 89 92 92 95 96 95 98 96 94 92 93 95 96 97 97 97 98 98 96 97 95 94
30 31 34 28 22 22 22 21 16 12 10 9 9 12 13 15 14 14 14 13 16 16 45 66 70 75 86 94 98 96 94 96 97 96 95 94 94 93 94 96 96 97 97 97 96 97 94 99 98
26 28 28 24 22 26 27 26 21 16 12 10 8 10 12 13 9 12 21 18 18 17 29 59 67 76 82 88 85 85 87 94 94 95 94 96 95 93 90 92 94 96 97 98 96 94 98 98 92
27 30 31 36 34 31 32 32 24 17 14 10 8 7 9 10 10 9 12 21 27 18 26 45 64 76 80 82 89 98 98 99 99 98 95 93 94 94 91 93 94 96 94 96 95 95 90 93 96
33 33 36 38 44 55 36 61 37 25 22 16 9 8 10 9 9 10 9 19 30 32 42 36 61 73 80 84 90 93 90 94 89 90 93 93 94 96 94 94 94 95 94 95 95 95 91 90 94
37 31 38 43 56 53 44 49 35 24 23 17 10 8 11 9 10 9 10 16 20 30 50 58 68 74 81 85 84 90 90 89 94 94 95 90 91 94 96 96 96 96 96 94 95 95 92 90 90
27 39 43 46 61 80 50 50 42 31 24 17 10 8 10 10 8 8 9 10 38 57 69 63 75 75 82 84 83 84 90 95 95 93 95 92 92 95 97 97 96 95 95 95 95 94 92 92 90
42 55 83 72 72 61 33 36 36 24 19 16 13 11 12 12 28 23 56 89 94 94 92 92 91 98 90 87 87 84 87 89 90 92 92 95 96 96 96 96 98 97 95 94 94 95 94 94 94
47 74 95 94 77 69 53 52 30 20 17 14 11 11 50 88 88 91 91 95 93 90 91 91 92 97 96 96 94 92 90 87 87 88 89 91 92 91 91 92 95 97 96 96 95 96 95 95 96
80 85 66 98 90 87 62 39 25 21 20 17 17 15 91 92 95 96 96 97 97 96 97 94 94 95 96 95 96 97 96 94 92 90 91 90 90 93 95 92 94 96 97 97 96 96 96 96 95
62 46 89 76 93 91 48 44 42 28 24 22 33 41 77 88 94 94 95 95 96 97 98 97 96 98 96 89 93 92 96 94 92 92 92 90 91 90 95 95 94 95 94 95 95 96 96 97 97
56 70 66 85 81 94 92 47 54 55 72 91 85 57 71 91 95 94 93 92 93 91 93 94 95 98 99 93 92 94 90 91 86 87 89 90 93 96 96 96 96 96 96 95 95 94 94 97 96
46 52 61 97 84 81 90 58 40 47 86 90 89 88 89 89 90 88 88 89 90 91 92 93 92 93 94 96 95 94 95 89 90 90 92 93 95 95 96 98 98 99 99 98 98 98 97 98 97

GFSSGP_sfc_rhum_132.txt.gz
RH
75 65 50 32 26 32 30 19 29 19 17 16 15 20 29 38 41 49 66 70 81 89 95 94 95 93 94 94 93 92 91 91 92 92 92 91 90 89 90 90 90 87 83 79 81 82 79 82 86
60 47 39 39 27 20 12 26 24 20 16 16 16 17 24 29 46 59 63 77 80 91 95 95 95 94 93 94 94 92 90 91 92 92 92 91 91 90 90 90 90 88 84 81 78 78 81 86 88
58 45 46 45 45 22 18 21 21 18 16 16 16 17 24 35 46 54 54 83 87 92 94 95 94 94 93 94 94 93 93 93 93 93 92 92 92 91 90 90 89 88 84 82 78 81 85 90 93
41 48 52 51 49 35 26 23 21 19 19 17 20 21 20 30 47 48 77 85 87 94 94 94 95 95 94 94 94 95 94 94 94 94 93 92 90 90 89 90 90 88 85 82 82 85 90 93 94
49 55 66 69 62 40 26 23 20 23 21 22 23 26 22 28 49 68 80 80 84 95 95 95 94 94 93 94 95 95 94 95 95 94 94 92 91 91 89 89 90 89 86 86 88 89 91 93 94
48 52 64 65 54 33 28 25 24 27 23 23 24 25 23 30 46 60 76 84 88 95 96 94 93 94 93 93 96 96 95 95 96 94 93 93 93 92 89 90 91 90 86 85 90 92 92 93 93
53 60 68 62 45 45 36 27 26 25 27 25 24 25 22 28 41 62 75 88 93 95 97 97 96 95 94 96 97 98 97 96 96 94 94 94 96 95 90 89 89 87 87 84 89 92 93 92 91
66 64 76 70 54 50 34 29 28 29 28 22 22 26 25 28 60 85 94 96 97 99 98 96 94 97 98 97 98 98 98 98 97 95 95 96 96 95 90 88 89 89 86 83 90 93 93 92 92
45 56 70 63 48 41 29 32 28 27 27 27 25 25 22 45 82 87 93 95 97 99 96 89 87 92 98 98 97 97 97 98 97 95 96 97 98 97 94 91 91 89 88 88 95 93 94 93 94
39 58 55 42 39 37 31 31 26 31 27 28 26 25 22 56 72 79 88 90 94 96 92 83 86 89 90 92 97 98 97 97 98 97 97 98 98 98 94 90 90 90 89 94 96 96 95 92 97
58 42 39 30 29 24 26 26 26 29 32 23 19 24 19 24 54 69 75 83 90 89 95 85 84 85 89 87 94 100 100 94 95 99 98 98 98 99 98 98 98 98 93 98 94 97 98 98 98
32 24 24 22 21 21 19 20 21 19 17 18 20 15 20 26 26 55 65 70 83 89 94 94 92 87 89 85 84 98 99 90 93 97 98 98 99 99 99 98 98 98 99 94 90 96 98 98 98
27 26 25 24 24 20 18 19 19 16 14 17 18 20 25 25 24 27 41 56 64 81 91 94 94 90 86 85 80 82 88 83 88 93 98 98 98 98 99 99 98 98 99 99 95 96 98 99 98
32 32 31 28 20 18 19 19 21 16 14 14 14 15 16 22 25 24 26 27 62 63 75 88 94 95 89 87 82 80 80 82 83 90 96 96 95 97 98 99 99 99 98 94 93 95 98 99 99
35 34 25 24 21 21 20 18 20 19 17 17 15 14 12 12 12 21 22 22 25 52 68 87 87 91 96 88 86 84 81 81 84 83 93 96 96 96 97 98 99 97 94 92 96 98 99 100 98
28 31 36 26 24 22 22 26 20 17 16 16 18 15 14 14 13 10 17 20 18 24 52 81 79 89 92 94 92 84 81 80 83 83 88 94 95 94 97 98 98 98 94 96 97 99 100 100 96
38 44 40 32 25 24 22 22 13 16 19 20 19 18 17 15 13 12 11 16 15 19 24 78 88 90 89 91 94 94 85 83 85 82 87 91 94 95 95 97 98 98 95 96 99 99 98 99 99
44 43 37 37 30 26 29 28 23 21 24 24 22 20 18 17 15 12 11 11 13 22 26 50 87 88 88 89 92 94 94 85 86 87 85 88 91 95 96 98 97 98 97 98 99 98 98 98 99
35 40 42 31 26 33 34 34 31 25 24 25 25 24 22 20 16 13 12 11 10 12 22 46 87 88 92 90 92 89 91 88 91 86 83 90 91 94 96 98 98 97 96 95 97 98 98 99 98
34 39 39 32 32 32 35 34 26 25 26 24 24 23 22 20 18 15 14 14 21 20 26 29 72 86 91 84 84 84 84 85 87 88 87 84 91 91 94 96 97 96 97 96 98 97 99 98 97
41 45 42 43 36 34 37 37 25 24 26 24 22 21 21 21 20 18 16 14 13 17 21 25 32 74 89 82 84 94 92 96 97 92 91 88 89 92 94 95 96 95 95 98 96 96 93 97 97
46 36 40 44 48 58 43 71 38 32 29 26 28 30 21 20 19 18 17 16 12 12 16 24 25 41 81 82 85 87 90 88 87 86 85 90 90 94 94 95 95 96 94 96 96 96 92 91 96
41 40 46 42 53 71 65 74 56 33 35 30 54 70 42 20 20 19 17 15 11 10 17 24 28 38 61 82 82 84 85 82 84 87 90 89 94 94 95 95 94 95 96 95 95 98 95 94 90
36 47 50 65 70 78 61 64 47 45 36 43 61 73 73 68 20 18 16 13 10 16 36 39 38 49 66 82 82 84 82 86 93 91 93 91 92 96 95 94 95 95 95 95 96 95 94 96 93
48 72 78 67 59 53 40 60 55 45 32 58 61 68 67 78 82 69 67 46 15 44 60 68 45 59 76 81 86 85 80 85 88 86 89 92 95 98 98 96 97 96 94 94 94 95 96 95 95
74 79 92 99 72 59 52 78 64 30 40 48 62 60 78 82 90 91 81 88 99 96 94 90 86 86 83 88 88 88 85 91 88 88 84 87 93 92 96 97 96 95 95 96 95 96 96 96 96
62 72 61 93 79 86 65 50 33 54 62 67 74 65 82 90 91 90 92 94 95 96 96 97 98 99 95 93 94 94 95 93 93 90 90 86 84 90 94 94 97 97 97 97 97 97 97 97 96
59 50 80 93 97 80 61 51 60 81 83 75 74 84 87 85 86 90 89 93 94 93 94 95 96 98 99 98 96 95 94 95 94 95 94 92 92 95 97 97 97 98 97 97 98 98 97 97 97
64 79 76 83 92 89 84 57 63 73 75 87 82 87 91 88 87 91 86 91 93 90 92 93 94 96 97 98 99 98 98 98 98 98 98 97 96 96 97 97 97 98 98 98 98 98 98 98 97
53 57 72 98 91 83 92 73 47 54 66 78 93 94 91 87 88 90 91 90 91 91 90 92 92 93 92 93 96 97 97 99 99 98 98 98 97 96 97 97 97 97 98 98 98 98 98 98 98